TAX1810 RJGG-OBBI

Flight info

Callsign TAX1810
Flight time 8h 33m
Altitude 26000
Route ISE3KOZA KEC ALUYO Z26 TONAR/N0491F280 Y52 IGURU G581 HCN G86 KAPLI DCT IKELA/K0928F280 A1 LENKO/K0943F300 DCT TRABE/N0509F300 DCT OKENA DCT CMP G473 BGO G472 PTN N895 BOLUS/N0502F320 N895 AAE L639 RASKI L301 RAGMA N571 IVOXI M557 TUMAK DCT ROTAG L768 ORDIG
Aircraft B77L/H-SDE1E2E3FGHIJ2J3J4J5M1RWXY/LB1D1

Departure

Time 2026-04-26 16:07
Airport Chubu Centrair International Airport (RJGG)

Arrival

Time 2026-04-27 00:41
Airport Bahrain International Airport (OBBI)
Time Latitude Longitude Altitude Speed Heading
2026-04-26 15:42 34.85283 136.81468 33 ft 0 kts 79°
2026-04-26 15:54 34.85279 136.81444 33 ft 4 kts 87°
2026-04-26 15:54 34.85281 136.81411 33 ft 4 kts 102°
2026-04-26 15:54 34.85288 136.81380 31 ft 4 kts 112°
2026-04-26 15:54 34.85292 136.81369 29 ft 1 kts 114°
2026-04-26 16:00 34.85289 136.81374 33 ft 1 kts 129°
2026-04-26 16:00 34.85279 136.81375 33 ft 2 kts 180°
2026-04-26 16:01 34.85267 136.81375 33 ft 2 kts 180°
2026-04-26 16:01 34.85255 136.81375 33 ft 2 kts 180°
2026-04-26 16:01 34.85203 136.81381 33 ft 12 kts 171°
2026-04-26 16:01 34.85122 136.81400 33 ft 12 kts 168°
2026-04-26 16:02 34.85041 136.81419 33 ft 12 kts 169°
2026-04-26 16:02 34.84962 136.81437 33 ft 10 kts 169°
2026-04-26 16:02 34.84893 136.81450 33 ft 10 kts 179°
2026-04-26 16:02 34.84858 136.81419 32 ft 10 kts 243°
2026-04-26 16:03 34.84832 136.81309 33 ft 10 kts 256°
2026-04-26 16:03 34.84820 136.81225 33 ft 10 kts 260°
2026-04-26 16:03 34.84786 136.81160 33 ft 10 kts 201°
2026-04-26 16:03 34.84719 136.81165 33 ft 10 kts 172°
2026-04-26 16:04 34.84652 136.81177 33 ft 10 kts 170°
2026-04-26 16:04 34.84587 136.81195 32 ft 10 kts 167°
2026-04-26 16:04 34.84521 136.81212 32 ft 10 kts 169°
2026-04-26 16:04 34.84454 136.81227 32 ft 10 kts 169°
2026-04-26 16:05 34.84388 136.81232 32 ft 10 kts 189°
2026-04-26 16:05 34.84348 136.81170 32 ft 10 kts 255°
2026-04-26 16:05 34.84333 136.81087 31 ft 10 kts 258°
2026-04-26 16:05 34.84328 136.81055 31 ft 0 kts 259°
2026-04-26 16:06 34.84324 136.81033 30 ft 9 kts 259°
2026-04-26 16:06 34.84318 136.80938 27 ft 12 kts 280°
2026-04-26 16:06 34.84387 136.80883 28 ft 15 kts 346°
2026-04-26 16:06 34.84611 136.80830 28 ft 67 kts 349°
2026-04-26 16:07 34.85346 136.80655 28 ft 150 kts 349°
2026-04-26 16:07 34.86620 136.80345 65 ft 207 kts 348°
2026-04-26 16:07 34.88074 136.79920 595 ft 217 kts 346°
2026-04-26 16:07 34.89473 136.79362 1421 ft 218 kts 330°
2026-04-26 16:08 34.90420 136.77933 2208 ft 227 kts 291°
2026-04-26 16:08 34.90603 136.76599 2314 ft 250 kts 267°
2026-04-26 16:08 34.89471 136.74023 2755 ft 272 kts 215°
2026-04-26 16:08 34.87837 136.72977 3413 ft 260 kts 190°
2026-04-26 16:09 34.86117 136.72326 4187 ft 260 kts 187°
2026-04-26 16:09 34.84408 136.71736 5100 ft 251 kts 189°
2026-04-26 16:09 34.82716 136.71190 5750 ft 253 kts 179°
2026-04-26 16:09 34.80993 136.71483 6319 ft 251 kts 163°
2026-04-26 16:10 34.79301 136.72043 7008 ft 254 kts 166°
2026-04-26 16:10 34.77553 136.72548 7644 ft 260 kts 168°
2026-04-26 16:10 34.75763 136.72761 8297 ft 264 kts 185°
2026-04-26 16:10 34.73952 136.72289 8886 ft 268 kts 194°
2026-04-26 16:11 34.72150 136.71693 9624 ft 270 kts 193°
2026-04-26 16:11 34.70321 136.71111 10304 ft 273 kts 193°
2026-04-26 16:11 34.68432 136.70615 10715 ft 285 kts 191°
2026-04-26 16:11 34.66406 136.70155 10899 ft 307 kts 189°
2026-04-26 16:12 34.64218 136.69694 11077 ft 330 kts 190°
2026-04-26 16:12 34.61916 136.69167 11526 ft 343 kts 191°
2026-04-26 16:12 34.57123 136.68000 12815 ft 357 kts 192°
2026-04-26 16:13 34.54679 136.67397 13535 ft 361 kts 193°
2026-04-26 16:13 34.52198 136.66783 14168 ft 366 kts 193°
2026-04-26 16:13 34.49691 136.66166 14861 ft 369 kts 193°
2026-04-26 16:13 34.47168 136.65547 15577 ft 371 kts 193°
2026-04-26 16:14 34.44632 136.64924 16249 ft 374 kts 193°
2026-04-26 16:14 34.42068 136.64294 16814 ft 380 kts 193°
2026-04-26 16:14 34.36857 136.63014 18123 ft 385 kts 193°
2026-04-26 16:15 34.34228 136.62370 18722 ft 386 kts 193°
2026-04-26 16:15 34.31585 136.61723 19308 ft 389 kts 193°
2026-04-26 16:15 34.28925 136.61072 19840 ft 392 kts 193°
2026-04-26 16:16 34.23544 136.59755 20918 ft 397 kts 193°
2026-04-26 16:16 34.20830 136.59077 21422 ft 397 kts 195°
2026-04-26 16:16 34.19090 136.58384 21614 ft 400 kts 205°
2026-04-26 16:16 34.16729 136.56579 22034 ft 404 kts 219°
2026-04-26 16:17 34.14641 136.54292 22485 ft 407 kts 221°
2026-04-26 16:17 34.12543 136.51977 22982 ft 410 kts 220°
2026-04-26 16:17 34.10426 136.49654 23479 ft 413 kts 220°
2026-04-26 16:17 34.08289 136.47322 23844 ft 416 kts 220°
2026-04-26 16:18 34.06126 136.44973 24231 ft 420 kts 220°
2026-04-26 16:18 34.01770 136.40261 25163 ft 422 kts 219°
2026-04-26 16:19 33.97372 136.35521 25891 ft 429 kts 219°
2026-04-26 16:19 33.95132 136.33112 25866 ft 432 kts 219°
2026-04-26 16:19 33.90675 136.28318 25848 ft 426 kts 219°
2026-04-26 16:20 33.88464 136.25944 25850 ft 426 kts 219°
2026-04-26 16:20 33.84043 136.21202 25857 ft 426 kts 219°
2026-04-26 16:20 33.81830 136.18831 25857 ft 426 kts 219°
2026-04-26 16:21 33.79613 136.16458 25881 ft 427 kts 219°
2026-04-26 16:21 33.77398 136.14088 25859 ft 427 kts 219°
2026-04-26 16:21 33.75212 136.11751 25859 ft 426 kts 219°
2026-04-26 16:21 33.72997 136.09385 25852 ft 425 kts 219°
2026-04-26 16:22 33.70790 136.07028 25839 ft 424 kts 219°
2026-04-26 16:22 33.68586 136.04677 25844 ft 423 kts 219°
2026-04-26 16:22 33.66387 136.02333 25847 ft 423 kts 219°
2026-04-26 16:22 33.64190 135.99992 25847 ft 422 kts 219°
2026-04-26 16:23 33.61994 135.97654 25849 ft 422 kts 219°
2026-04-26 16:23 33.59803 135.95320 25867 ft 421 kts 219°
2026-04-26 16:23 33.57614 135.92993 25853 ft 420 kts 219°
2026-04-26 16:23 33.55433 135.90676 25841 ft 419 kts 218°
2026-04-26 16:24 33.53255 135.88364 25847 ft 418 kts 218°
2026-04-26 16:24 33.51079 135.86056 25837 ft 417 kts 218°
2026-04-26 16:24 33.48914 135.83759 25831 ft 416 kts 218°
2026-04-26 16:24 33.46747 135.81463 25828 ft 415 kts 218°
2026-04-26 16:25 33.44582 135.79173 25832 ft 415 kts 218°
2026-04-26 16:25 33.42389 135.76927 25860 ft 414 kts 217°
2026-04-26 16:25 33.40180 135.74726 25843 ft 413 kts 216°
2026-04-26 16:25 33.37972 135.72550 25839 ft 411 kts 216°
2026-04-26 16:26 33.35772 135.70384 25819 ft 408 kts 216°
2026-04-26 16:26 33.33584 135.68226 25831 ft 406 kts 216°
2026-04-26 16:26 33.31410 135.66077 25834 ft 405 kts 216°
2026-04-26 16:26 33.29247 135.63935 25838 ft 403 kts 216°
2026-04-26 16:27 33.27089 135.61797 25841 ft 403 kts 216°
2026-04-26 16:27 33.24934 135.59661 25841 ft 403 kts 216°
2026-04-26 16:27 33.22778 135.57526 25872 ft 403 kts 216°
2026-04-26 16:27 33.20614 135.55385 25844 ft 404 kts 217°
2026-04-26 16:28 33.18450 135.53243 25847 ft 404 kts 217°
2026-04-26 16:28 33.16283 135.51100 25844 ft 405 kts 217°
2026-04-26 16:28 33.14111 135.48954 25841 ft 406 kts 216°
2026-04-26 16:28 33.11936 135.46806 25839 ft 406 kts 216°
2026-04-26 16:29 33.09758 135.44656 25838 ft 407 kts 216°
2026-04-26 16:29 33.07578 135.42506 25839 ft 407 kts 216°
2026-04-26 16:29 33.05427 135.40386 25839 ft 407 kts 216°
2026-04-26 16:29 33.03216 135.38209 25854 ft 407 kts 217°
2026-04-26 16:30 33.01029 135.36058 25827 ft 408 kts 218°
2026-04-26 16:30 32.98839 135.33904 25837 ft 409 kts 218°
2026-04-26 16:30 32.96646 135.31746 25841 ft 409 kts 218°
2026-04-26 16:30 32.94448 135.29587 25837 ft 410 kts 218°
2026-04-26 16:31 32.92248 135.27426 25835 ft 410 kts 218°
2026-04-26 16:31 32.90044 135.25264 25834 ft 411 kts 218°
2026-04-26 16:31 32.87836 135.23100 25833 ft 411 kts 218°
2026-04-26 16:31 32.85629 135.20937 25833 ft 411 kts 218°
2026-04-26 16:32 32.83611 135.18960 25833 ft 411 kts 218°
2026-04-26 16:32 32.82152 135.17532 25832 ft 411 kts 218°
2026-04-26 16:32 32.79198 135.14643 25832 ft 411 kts 218°
2026-04-26 16:32 32.76998 135.12477 25832 ft 411 kts 219°
2026-04-26 16:33 32.74918 135.10157 25833 ft 411 kts 223°
2026-04-26 16:33 32.72925 135.07779 25837 ft 411 kts 222°
2026-04-26 16:33 32.70897 135.05385 25833 ft 411 kts 222°
2026-04-26 16:33 32.68865 135.02999 25831 ft 411 kts 222°
2026-04-26 16:34 32.66834 135.00620 25841 ft 411 kts 222°
2026-04-26 16:34 32.64802 134.98240 25853 ft 411 kts 221°
2026-04-26 16:34 32.62766 134.95857 25845 ft 411 kts 221°
2026-04-26 16:34 32.60731 134.93478 25841 ft 411 kts 221°
2026-04-26 16:35 32.58695 134.91097 25837 ft 411 kts 221°
2026-04-26 16:35 32.56658 134.88717 25835 ft 411 kts 221°
2026-04-26 16:35 32.54618 134.86335 25839 ft 411 kts 221°
2026-04-26 16:35 32.52581 134.83957 25824 ft 411 kts 222°
2026-04-26 16:36 32.50543 134.81580 25835 ft 411 kts 222°
2026-04-26 16:36 32.48506 134.79206 25835 ft 410 kts 222°
2026-04-26 16:36 32.46473 134.76837 25830 ft 410 kts 222°
2026-04-26 16:36 32.44441 134.74470 25833 ft 410 kts 222°
2026-04-26 16:37 32.42408 134.72106 25833 ft 410 kts 222°
2026-04-26 16:37 32.40374 134.69741 25826 ft 410 kts 222°
2026-04-26 16:37 32.38343 134.67382 25827 ft 409 kts 222°
2026-04-26 16:37 32.36311 134.65022 25833 ft 409 kts 222°
2026-04-26 16:38 32.34280 134.62666 25839 ft 409 kts 222°
2026-04-26 16:38 32.32251 134.60315 25847 ft 410 kts 223°
2026-04-26 16:38 32.30206 134.57948 25850 ft 412 kts 223°
2026-04-26 16:38 32.28150 134.55567 25817 ft 415 kts 223°
2026-04-26 16:39 32.26085 134.53176 25823 ft 416 kts 223°
2026-04-26 16:39 32.24015 134.50782 25837 ft 418 kts 223°
2026-04-26 16:39 32.21934 134.48377 25842 ft 419 kts 223°
2026-04-26 16:39 32.19852 134.45972 25841 ft 419 kts 223°
2026-04-26 16:40 32.17764 134.43563 25838 ft 420 kts 223°
2026-04-26 16:40 32.15675 134.41155 25858 ft 420 kts 224°
2026-04-26 16:40 32.13582 134.38745 25830 ft 421 kts 224°
2026-04-26 16:40 32.11490 134.36335 25841 ft 421 kts 224°
2026-04-26 16:41 32.09392 134.33919 25844 ft 422 kts 224°
2026-04-26 16:41 32.07279 134.31488 25856 ft 429 kts 224°
2026-04-26 16:41 32.05115 134.29000 25856 ft 438 kts 224°
2026-04-26 16:41 32.02916 134.26474 25858 ft 446 kts 224°
2026-04-26 16:42 32.00679 134.23907 25856 ft 452 kts 224°
2026-04-26 16:42 31.98419 134.21315 25863 ft 454 kts 224°
2026-04-26 16:42 31.96155 134.18721 25851 ft 453 kts 224°
2026-04-26 16:42 31.93899 134.16138 25846 ft 453 kts 224°
2026-04-26 16:43 31.91640 134.13552 25843 ft 452 kts 224°
2026-04-26 16:43 31.89382 134.10970 25836 ft 452 kts 224°
2026-04-26 16:43 31.87127 134.08397 25841 ft 453 kts 226°
2026-04-26 16:43 31.84863 134.05811 25842 ft 455 kts 226°
2026-04-26 16:44 31.82585 134.03209 25848 ft 457 kts 226°
2026-04-26 16:44 31.80298 134.00601 25858 ft 460 kts 226°
2026-04-26 16:44 31.77992 133.97972 25858 ft 462 kts 226°
2026-04-26 16:44 31.75676 133.95335 25831 ft 464 kts 226°
2026-04-26 16:45 31.73355 133.92694 25838 ft 464 kts 226°
2026-04-26 16:45 31.71034 133.90055 25844 ft 464 kts 226°
2026-04-26 16:45 31.68715 133.87421 25847 ft 463 kts 226°
2026-04-26 16:45 31.66400 133.84793 25849 ft 463 kts 226°
2026-04-26 16:46 31.64086 133.82171 25865 ft 462 kts 227°
2026-04-26 16:46 31.61774 133.79550 25830 ft 462 kts 227°
2026-04-26 16:46 31.59464 133.76934 25848 ft 462 kts 227°
2026-04-26 16:46 31.57158 133.74323 25852 ft 462 kts 227°
2026-04-26 16:47 31.54844 133.71705 25856 ft 462 kts 227°
2026-04-26 16:47 31.52529 133.69088 25860 ft 462 kts 227°
2026-04-26 16:47 31.50219 133.66478 25860 ft 462 kts 227°
2026-04-26 16:47 31.47904 133.63866 25847 ft 462 kts 227°
2026-04-26 16:48 31.45589 133.61256 25864 ft 463 kts 227°
2026-04-26 16:48 31.43266 133.58637 25865 ft 464 kts 227°
2026-04-26 16:48 31.40940 133.56017 25865 ft 465 kts 227°
2026-04-26 16:48 31.38648 133.53436 25864 ft 465 kts 227°
2026-04-26 16:49 31.36311 133.50808 25865 ft 466 kts 227°
2026-04-26 16:49 31.33971 133.48179 25847 ft 466 kts 228°
2026-04-26 16:49 31.31636 133.45557 25860 ft 465 kts 228°
2026-04-26 16:49 31.29302 133.42939 25880 ft 465 kts 228°
2026-04-26 16:50 31.26964 133.40317 25873 ft 466 kts 228°
2026-04-26 16:50 31.24628 133.37700 25869 ft 466 kts 228°
2026-04-26 16:50 31.22286 133.35077 25871 ft 466 kts 228°
2026-04-26 16:50 31.19947 133.32460 25858 ft 466 kts 228°
2026-04-26 16:51 31.17608 133.29844 25864 ft 466 kts 228°
2026-04-26 16:51 31.15267 133.27229 25870 ft 466 kts 228°
2026-04-26 16:51 31.12925 133.24614 25875 ft 466 kts 228°
2026-04-26 16:51 31.10582 133.22000 25876 ft 466 kts 228°
2026-04-26 16:52 31.08234 133.19384 25872 ft 467 kts 228°
2026-04-26 16:52 31.06680 133.17652 25861 ft 467 kts 229°
2026-04-26 16:52 31.03536 133.14150 25870 ft 468 kts 228°
2026-04-26 16:52 31.01180 133.11529 25879 ft 468 kts 228°
2026-04-26 16:53 30.98826 133.08912 25877 ft 468 kts 228°
2026-04-26 16:53 30.96468 133.06292 25879 ft 469 kts 228°
2026-04-26 16:53 30.94108 133.03672 25880 ft 469 kts 228°
2026-04-26 16:53 30.91749 133.01056 25868 ft 468 kts 228°
2026-04-26 16:54 30.89387 132.98438 25875 ft 469 kts 228°
2026-04-26 16:54 30.87026 132.95822 25882 ft 469 kts 228°
2026-04-26 16:54 30.84665 132.93209 25883 ft 469 kts 228°
2026-04-26 16:54 30.82302 132.90595 25885 ft 469 kts 228°
2026-04-26 16:55 30.79937 132.87981 25884 ft 469 kts 228°
2026-04-26 16:55 30.77571 132.85368 25885 ft 469 kts 228°
2026-04-26 16:55 30.75206 132.82758 25886 ft 468 kts 228°
2026-04-26 16:55 30.72845 132.80154 25887 ft 468 kts 228°
2026-04-26 16:56 30.68124 132.74953 25887 ft 467 kts 228°
2026-04-26 16:56 30.65766 132.72357 25887 ft 467 kts 228°
2026-04-26 16:56 30.63406 132.69762 25885 ft 467 kts 228°
2026-04-26 16:57 30.61046 132.67167 25892 ft 467 kts 228°
2026-04-26 16:57 30.58686 132.64575 25892 ft 467 kts 228°
2026-04-26 16:57 30.53964 132.59393 25892 ft 467 kts 228°
2026-04-26 16:58 30.51598 132.56801 25895 ft 468 kts 228°
2026-04-26 16:58 30.50833 132.55962 25867 ft 468 kts 227°
2026-04-26 16:58 30.44553 132.49092 25886 ft 465 kts 227°
2026-04-26 16:59 30.42200 132.46521 25889 ft 465 kts 227°
2026-04-26 16:59 30.37498 132.41387 25894 ft 464 kts 227°
2026-04-26 17:00 30.32800 132.36264 25895 ft 464 kts 227°
2026-04-26 17:00 30.28106 132.31152 25899 ft 463 kts 227°
2026-04-26 17:00 30.25756 132.28596 25902 ft 464 kts 227°
2026-04-26 17:01 30.23406 132.26042 25903 ft 464 kts 227°
2026-04-26 17:01 30.21057 132.23490 25873 ft 464 kts 227°
2026-04-26 17:01 30.18706 132.20939 25888 ft 463 kts 227°
2026-04-26 17:01 30.16361 132.18395 25900 ft 462 kts 227°
2026-04-26 17:02 30.14016 132.15853 25900 ft 462 kts 227°
2026-04-26 17:02 30.11670 132.13312 25904 ft 462 kts 227°
2026-04-26 17:02 30.09327 132.10775 25905 ft 462 kts 227°
2026-04-26 17:02 30.06978 132.08235 25907 ft 462 kts 227°
2026-04-26 17:03 30.04633 132.05700 25889 ft 462 kts 227°
2026-04-26 17:03 30.02290 132.03168 25895 ft 461 kts 227°
2026-04-26 17:03 30.00739 132.01494 25896 ft 461 kts 227°
2026-04-26 17:03 29.98398 131.98967 25901 ft 461 kts 227°
2026-04-26 17:04 29.96055 131.96440 25905 ft 461 kts 227°
2026-04-26 17:04 29.93710 131.93912 25910 ft 462 kts 227°
2026-04-26 17:04 29.91361 131.91382 25892 ft 462 kts 227°
2026-04-26 17:04 29.89016 131.88858 25899 ft 461 kts 227°
2026-04-26 17:05 29.86674 131.86339 25902 ft 461 kts 227°
2026-04-26 17:05 29.84328 131.83816 25915 ft 461 kts 227°
2026-04-26 17:05 29.82096 131.81187 25903 ft 458 kts 232°
2026-04-26 17:05 29.80078 131.78361 25908 ft 455 kts 237°
2026-04-26 17:06 29.78296 131.75362 25930 ft 454 kts 239°
2026-04-26 17:06 29.76521 131.72350 25886 ft 454 kts 238°
2026-04-26 17:06 29.74733 131.69356 25913 ft 454 kts 238°
2026-04-26 17:06 29.72937 131.66370 25907 ft 454 kts 238°
2026-04-26 17:07 29.71138 131.63388 25912 ft 454 kts 238°
2026-04-26 17:07 29.69336 131.60405 25915 ft 453 kts 238°
2026-04-26 17:07 29.67537 131.57429 25916 ft 453 kts 238°
2026-04-26 17:07 29.65738 131.54454 25919 ft 453 kts 238°
2026-04-26 17:08 29.63937 131.51477 25888 ft 453 kts 238°
2026-04-26 17:08 29.62137 131.48503 25920 ft 453 kts 238°
2026-04-26 17:08 29.60336 131.45529 25920 ft 453 kts 238°
2026-04-26 17:08 29.58562 131.42601 25915 ft 453 kts 238°
2026-04-26 17:09 29.56887 131.39839 25919 ft 453 kts 238°
2026-04-26 17:09 29.55669 131.37832 25922 ft 453 kts 238°
2026-04-26 17:09 29.55085 131.36869 25921 ft 453 kts 238°
2026-04-26 17:10 29.54382 131.35712 25920 ft 453 kts 238°
2026-04-26 17:10 29.52578 131.32740 25928 ft 453 kts 238°
2026-04-26 17:10 29.50774 131.29773 25897 ft 454 kts 238°
2026-04-26 17:11 29.48966 131.26800 25912 ft 453 kts 238°
2026-04-26 17:11 29.47160 131.23833 25918 ft 453 kts 238°
2026-04-26 17:11 29.45353 131.20868 25922 ft 453 kts 238°
2026-04-26 17:11 29.43545 131.17902 25924 ft 453 kts 238°
2026-04-26 17:12 29.39930 131.11977 25931 ft 454 kts 238°
2026-04-26 17:12 29.38118 131.09012 25925 ft 454 kts 238°
2026-04-26 17:13 29.34490 131.03079 25926 ft 454 kts 238°
2026-04-26 17:13 29.32675 131.00114 25929 ft 455 kts 238°
2026-04-26 17:13 29.29041 130.94184 25933 ft 455 kts 238°
2026-04-26 17:14 29.27246 130.91259 25934 ft 455 kts 238°
2026-04-26 17:14 29.23606 130.85333 25939 ft 455 kts 238°
2026-04-26 17:14 29.21783 130.82368 25936 ft 456 kts 238°
2026-04-26 17:15 29.18130 130.76433 25941 ft 456 kts 238°
2026-04-26 17:15 29.16303 130.73468 25937 ft 456 kts 238°
2026-04-26 17:15 29.14476 130.70504 25937 ft 456 kts 238°
2026-04-26 17:16 29.12647 130.67541 25937 ft 456 kts 238°
2026-04-26 17:16 29.10819 130.64581 25936 ft 456 kts 238°
2026-04-26 17:16 29.08988 130.61618 25923 ft 456 kts 238°
2026-04-26 17:16 29.07160 130.58661 25935 ft 455 kts 238°
2026-04-26 17:17 29.05336 130.55713 25936 ft 455 kts 238°
2026-04-26 17:17 29.03500 130.52749 25950 ft 455 kts 238°
2026-04-26 17:17 29.01671 130.49796 25942 ft 456 kts 238°
2026-04-26 17:17 28.99840 130.46844 25953 ft 456 kts 238°
2026-04-26 17:18 28.98006 130.43888 25948 ft 456 kts 238°
2026-04-26 17:18 28.96168 130.40930 25947 ft 457 kts 238°
2026-04-26 17:18 28.94331 130.37973 25939 ft 457 kts 238°
2026-04-26 17:18 28.92491 130.35014 25941 ft 457 kts 238°
2026-04-26 17:19 28.88811 130.29103 25947 ft 457 kts 238°
2026-04-26 17:19 28.86966 130.26142 25950 ft 457 kts 238°
2026-04-26 17:19 28.85122 130.23185 25957 ft 458 kts 238°
2026-04-26 17:20 28.83274 130.20225 25958 ft 458 kts 238°
2026-04-26 17:20 28.82051 130.18266 25955 ft 459 kts 238°
2026-04-26 17:20 28.79576 130.14305 25947 ft 458 kts 238°
2026-04-26 17:20 28.78224 130.12141 25949 ft 458 kts 238°
2026-04-26 17:21 28.76373 130.09185 25951 ft 458 kts 238°
2026-04-26 17:21 28.74521 130.06227 25959 ft 458 kts 238°
2026-04-26 17:21 28.72669 130.03271 25960 ft 458 kts 238°
2026-04-26 17:21 28.70817 130.00318 25957 ft 459 kts 238°
2026-04-26 17:22 28.68959 129.97355 25955 ft 459 kts 238°
2026-04-26 17:22 28.67100 129.94395 25931 ft 460 kts 238°
2026-04-26 17:22 28.65239 129.91433 25944 ft 459 kts 238°
2026-04-26 17:22 28.63379 129.88474 25948 ft 459 kts 238°
2026-04-26 17:23 28.61520 129.85519 25951 ft 459 kts 238°
2026-04-26 17:23 28.59661 129.82566 25953 ft 459 kts 238°
2026-04-26 17:23 28.57799 129.79612 25951 ft 460 kts 238°
2026-04-26 17:23 28.55964 129.76702 25945 ft 460 kts 238°
2026-04-26 17:24 28.54098 129.73743 25943 ft 460 kts 238°
2026-04-26 17:24 28.52228 129.70781 25919 ft 461 kts 238°
2026-04-26 17:24 28.50358 129.67820 25932 ft 460 kts 238°
2026-04-26 17:24 28.48490 129.64864 25944 ft 461 kts 238°
2026-04-26 17:25 28.46618 129.61906 25934 ft 461 kts 238°
2026-04-26 17:25 28.44745 129.58952 25946 ft 461 kts 238°
2026-04-26 17:25 28.42752 129.56088 25951 ft 464 kts 233°
2026-04-26 17:25 28.40634 129.53317 25948 ft 465 kts 233°
2026-04-26 17:26 28.38504 129.50561 25941 ft 465 kts 233°
2026-04-26 17:26 28.36371 129.47803 25930 ft 464 kts 233°
2026-04-26 17:26 28.34244 129.45047 25957 ft 464 kts 233°
2026-04-26 17:26 28.32121 129.42284 25963 ft 464 kts 233°
2026-04-26 17:27 28.30002 129.39517 25966 ft 465 kts 233°
2026-04-26 17:27 28.27885 129.36749 25963 ft 465 kts 233°
2026-04-26 17:27 28.25761 129.33973 25981 ft 466 kts 234°
2026-04-26 17:27 28.23636 129.31196 25966 ft 466 kts 234°
2026-04-26 17:28 28.21510 129.28419 25944 ft 467 kts 234°
2026-04-26 17:28 28.19380 129.25639 25964 ft 467 kts 234°
2026-04-26 17:28 28.17253 129.22865 25970 ft 467 kts 234°
2026-04-26 17:28 28.15121 129.20088 25979 ft 467 kts 234°
2026-04-26 17:29 28.12990 129.17311 25976 ft 467 kts 234°
2026-04-26 17:29 28.11578 129.15471 25979 ft 467 kts 234°
2026-04-26 17:29 28.08725 129.11759 25976 ft 468 kts 234°
2026-04-26 17:29 28.06585 129.08977 25974 ft 468 kts 234°
2026-04-26 17:30 28.04444 129.06195 25966 ft 469 kts 234°
2026-04-26 17:30 28.02302 129.03414 25974 ft 469 kts 234°
2026-04-26 17:30 28.00158 129.00631 25982 ft 469 kts 234°
2026-04-26 17:30 27.98011 128.97847 25983 ft 470 kts 234°
2026-04-26 17:31 27.95864 128.95065 25976 ft 470 kts 234°
2026-04-26 17:31 27.93712 128.92279 25978 ft 470 kts 234°
2026-04-26 17:31 27.91561 128.89495 25979 ft 470 kts 234°
2026-04-26 17:31 27.89404 128.86706 25951 ft 471 kts 234°
2026-04-26 17:32 27.87277 128.83958 25983 ft 471 kts 234°
2026-04-26 17:32 27.85090 128.81133 25981 ft 472 kts 234°
2026-04-26 17:32 27.82955 128.78376 25988 ft 473 kts 234°
2026-04-26 17:32 27.80788 128.75581 25985 ft 473 kts 234°
2026-04-26 17:33 27.78618 128.72784 25977 ft 473 kts 234°
2026-04-26 17:33 27.76446 128.69986 25979 ft 474 kts 234°
2026-04-26 17:33 27.74276 128.67193 25979 ft 474 kts 234°
2026-04-26 17:34 27.69933 128.61608 25976 ft 474 kts 234°
2026-04-26 17:34 27.67753 128.58806 25983 ft 475 kts 234°
2026-04-26 17:34 27.65572 128.56006 25983 ft 475 kts 234°
2026-04-26 17:34 27.63389 128.53205 25982 ft 476 kts 234°
2026-04-26 17:35 27.61200 128.50399 25980 ft 476 kts 234°
2026-04-26 17:35 27.59015 128.47599 25980 ft 476 kts 234°
2026-04-26 17:35 27.56830 128.44800 25968 ft 476 kts 234°
2026-04-26 17:35 27.54639 128.41997 25976 ft 476 kts 234°
2026-04-26 17:36 27.52447 128.39194 25977 ft 476 kts 234°
2026-04-26 17:36 27.50257 128.36396 25982 ft 476 kts 234°
2026-04-26 17:36 27.48071 128.33604 25985 ft 476 kts 234°
2026-04-26 17:36 27.45880 128.30808 25987 ft 476 kts 234°
2026-04-26 17:37 27.43689 128.28013 25987 ft 476 kts 234°
2026-04-26 17:37 27.41498 128.25220 25986 ft 476 kts 234°
2026-04-26 17:37 27.39305 128.22426 25966 ft 476 kts 234°
2026-04-26 17:38 27.34917 128.16843 25981 ft 477 kts 234°
2026-04-26 17:38 27.32720 128.14048 25986 ft 477 kts 234°
2026-04-26 17:38 27.30517 128.11249 25993 ft 478 kts 234°
2026-04-26 17:38 27.28311 128.08446 25995 ft 479 kts 234°
2026-04-26 17:39 27.26103 128.05645 25993 ft 479 kts 234°
2026-04-26 17:39 27.23890 128.02838 25993 ft 480 kts 234°
2026-04-26 17:39 27.21676 128.00033 25974 ft 480 kts 234°
2026-04-26 17:39 27.19464 127.97232 25984 ft 480 kts 234°
2026-04-26 17:40 27.17248 127.94428 25987 ft 480 kts 234°
2026-04-26 17:40 27.16500 127.93483 25983 ft 480 kts 234°
2026-04-26 17:40 27.12817 127.88825 25991 ft 480 kts 234°
2026-04-26 17:40 27.10597 127.86021 25995 ft 480 kts 234°
2026-04-26 17:41 27.08375 127.83216 25997 ft 481 kts 234°
2026-04-26 17:41 27.06154 127.80415 25970 ft 481 kts 234°
2026-04-26 17:41 27.03931 127.77612 25998 ft 480 kts 234°
2026-04-26 17:41 27.01709 127.74813 26003 ft 480 kts 234°
2026-04-26 17:42 26.99489 127.72018 26004 ft 480 kts 234°
2026-04-26 17:42 26.97265 127.69219 25994 ft 481 kts 233°
2026-04-26 17:42 26.95042 127.66424 26018 ft 481 kts 233°
2026-04-26 17:42 26.92815 127.63625 26021 ft 481 kts 233°
2026-04-26 17:43 26.90588 127.60828 26013 ft 481 kts 233°
2026-04-26 17:43 26.88358 127.58029 26021 ft 481 kts 233°
2026-04-26 17:43 26.86129 127.55234 26029 ft 481 kts 233°
2026-04-26 17:43 26.83901 127.52442 26035 ft 481 kts 233°
2026-04-26 17:44 26.81670 127.49647 26055 ft 481 kts 233°
2026-04-26 17:44 26.79440 127.46855 26051 ft 481 kts 233°
2026-04-26 17:44 26.77211 127.44066 26052 ft 481 kts 233°
2026-04-26 17:44 26.74977 127.41273 26017 ft 481 kts 233°
2026-04-26 17:45 26.72742 127.38481 26017 ft 482 kts 233°
2026-04-26 17:45 26.70506 127.35689 25999 ft 482 kts 233°
2026-04-26 17:45 26.68273 127.32903 25990 ft 481 kts 233°
2026-04-26 17:45 26.66067 127.30152 25995 ft 481 kts 233°
2026-04-26 17:46 26.63833 127.27368 25996 ft 481 kts 233°
2026-04-26 17:46 26.61571 127.24551 26003 ft 481 kts 233°
2026-04-26 17:46 26.59335 127.21767 26006 ft 481 kts 233°
2026-04-26 17:46 26.57098 127.18984 26000 ft 481 kts 233°
2026-04-26 17:47 26.54860 127.16201 25994 ft 482 kts 233°
2026-04-26 17:47 26.54135 127.15300 25991 ft 481 kts 233°
2026-04-26 17:47 26.50417 127.10685 26000 ft 481 kts 233°
2026-04-26 17:47 26.48180 127.07909 26003 ft 481 kts 233°
2026-04-26 17:48 26.45945 127.05137 26003 ft 480 kts 233°
2026-04-26 17:48 26.43709 127.02366 26002 ft 480 kts 233°
2026-04-26 17:48 26.41470 126.99594 26002 ft 480 kts 233°
2026-04-26 17:48 26.39234 126.96826 25999 ft 481 kts 233°
2026-04-26 17:49 26.36996 126.94058 26010 ft 481 kts 233°
2026-04-26 17:49 26.34757 126.91290 25992 ft 481 kts 233°
2026-04-26 17:49 26.32518 126.88524 26000 ft 480 kts 233°
2026-04-26 17:49 26.30279 126.85759 26003 ft 480 kts 233°
2026-04-26 17:50 26.28040 126.82998 26004 ft 480 kts 233°
2026-04-26 17:50 26.25798 126.80233 26006 ft 481 kts 233°
2026-04-26 17:50 26.23557 126.77471 26006 ft 481 kts 233°
2026-04-26 17:50 26.21316 126.74711 26012 ft 481 kts 233°
2026-04-26 17:51 26.19070 126.71946 26007 ft 481 kts 233°
2026-04-26 17:51 26.16825 126.69184 25993 ft 481 kts 233°
2026-04-26 17:51 26.15304 126.67315 25999 ft 481 kts 233°
2026-04-26 17:51 26.13057 126.64555 26003 ft 481 kts 233°
2026-04-26 17:52 26.10081 126.60901 26006 ft 481 kts 233°
2026-04-26 17:52 26.08592 126.59074 26006 ft 481 kts 233°
2026-04-26 17:52 26.06343 126.56315 26006 ft 481 kts 233°
2026-04-26 17:52 26.04092 126.53556 26006 ft 482 kts 233°
2026-04-26 17:53 26.01839 126.50796 26004 ft 482 kts 233°
2026-04-26 17:53 25.99587 126.48040 26004 ft 482 kts 232°
2026-04-26 17:53 25.97335 126.45284 26012 ft 482 kts 232°
2026-04-26 17:54 25.92829 126.39776 26006 ft 482 kts 232°
2026-04-26 17:54 25.90574 126.37023 26004 ft 482 kts 232°
2026-04-26 17:54 25.88317 126.34269 26006 ft 482 kts 232°
2026-04-26 17:54 25.86063 126.31519 26005 ft 482 kts 232°
2026-04-26 17:55 25.83806 126.28768 26007 ft 482 kts 232°
2026-04-26 17:55 25.81550 126.26020 25996 ft 482 kts 232°
2026-04-26 17:55 25.79291 126.23269 25997 ft 482 kts 232°
2026-04-26 17:55 25.77032 126.20521 25997 ft 482 kts 232°
2026-04-26 17:56 25.74772 126.17772 26007 ft 482 kts 232°
2026-04-26 17:56 25.70249 126.12277 26004 ft 483 kts 232°
2026-04-26 17:57 25.65717 126.06778 26005 ft 483 kts 232°
2026-04-26 17:57 25.63452 126.04032 26006 ft 483 kts 232°
2026-04-26 17:57 25.61186 126.01286 25992 ft 483 kts 232°
2026-04-26 17:57 25.58920 125.98543 25999 ft 483 kts 232°
2026-04-26 17:58 25.52120 125.90319 26005 ft 483 kts 232°
2026-04-26 17:59 25.47585 125.84843 26006 ft 483 kts 232°
2026-04-26 17:59 25.29608 125.63187 26018 ft 482 kts 232°
2026-04-26 17:59 24.94076 125.19584 25986 ft 480 kts 232°
2026-04-26 17:59 24.57941 124.75635 25960 ft 482 kts 232°
2026-04-26 18:00 24.21821 124.32068 25993 ft 483 kts 231°
2026-04-26 18:00 23.86535 123.88101 25827 ft 471 kts 240°
2026-04-26 18:00 23.57180 123.39493 26154 ft 488 kts 237°
2026-04-26 18:00 23.26262 122.90499 25970 ft 488 kts 237°
2026-04-26 18:01 22.95856 122.42804 25824 ft 475 kts 237°
2026-04-26 18:01 22.65573 121.95759 26066 ft 480 kts 236°
2026-04-26 18:01 22.34480 121.47901 26159 ft 491 kts 236°
2026-04-26 18:01 22.03264 121.00295 25891 ft 483 kts 235°
2026-04-26 18:02 21.85371 120.48922 26221 ft 452 kts 261°
2026-04-26 18:02 21.76951 120.12962 26528 ft 479 kts 256°
2026-04-26 18:02 21.60109 119.36777 25896 ft 487 kts 257°
2026-04-26 18:02 21.47427 118.81144 25763 ft 472 kts 256°
2026-04-26 18:03 21.34733 118.26357 26058 ft 479 kts 256°
2026-04-26 18:03 21.21522 117.70258 26092 ft 491 kts 256°
2026-04-26 18:03 21.01812 117.17133 25949 ft 484 kts 241°
2026-04-26 18:03 20.78156 116.65543 25918 ft 484 kts 244°
2026-04-26 18:04 20.54146 116.14054 25966 ft 484 kts 244°
2026-04-26 18:04 20.30019 115.62531 25947 ft 485 kts 244°
2026-04-26 18:04 20.05813 115.11288 25958 ft 484 kts 244°
2026-04-26 18:05 19.56989 114.09389 25919 ft 483 kts 244°
2026-04-26 18:05 19.32327 113.58589 25918 ft 483 kts 243°
2026-04-26 18:05 19.07617 113.08126 25919 ft 484 kts 243°
2026-04-26 18:05 18.82723 112.57727 25929 ft 483 kts 243°
2026-04-26 18:06 18.56575 112.08105 25918 ft 488 kts 237°
2026-04-26 18:06 18.26208 111.61400 25926 ft 484 kts 239°
2026-04-26 18:06 17.96024 111.14270 25916 ft 486 kts 238°
2026-04-26 18:06 17.65748 110.67244 25918 ft 487 kts 238°
2026-04-26 18:07 17.37649 110.20794 25394 ft 473 kts 257°
2026-04-26 18:07 17.37283 110.17028 25574 ft 471 kts 270°
2026-04-26 18:07 17.37350 110.13587 25729 ft 475 kts 272°
2026-04-26 18:07 17.37386 110.11287 25841 ft 478 kts 270°
2026-04-26 18:08 17.37223 110.06624 26176 ft 481 kts 266°
2026-04-26 18:08 17.35940 109.96539 26990 ft 485 kts 262°
2026-04-26 18:08 17.30860 109.68953 29504 ft 485 kts 262°
2026-04-26 18:08 17.25921 109.40807 30003 ft 493 kts 262°
2026-04-26 18:09 17.20925 109.12895 29867 ft 480 kts 262°
2026-04-26 18:09 17.16070 108.85935 29771 ft 467 kts 262°
2026-04-26 18:09 17.11205 108.59164 29931 ft 473 kts 262°
2026-04-26 18:09 17.06194 108.31816 29972 ft 485 kts 262°
2026-04-26 18:10 17.01092 108.04183 29867 ft 482 kts 261°
2026-04-26 18:10 16.96024 107.76950 29788 ft 471 kts 261°
2026-04-26 18:10 16.90980 107.50028 29900 ft 476 kts 261°
2026-04-26 18:10 16.85569 107.22585 29990 ft 489 kts 260°
2026-04-26 18:11 16.79896 106.94771 29902 ft 488 kts 260°
2026-04-26 18:11 16.74291 106.67308 29869 ft 477 kts 260°
2026-04-26 18:11 16.68756 106.40408 29888 ft 476 kts 260°
2026-04-26 18:12 16.57344 105.85505 29950 ft 490 kts 259°
2026-04-26 18:12 16.51549 105.57912 29847 ft 482 kts 259°
2026-04-26 18:12 16.45827 105.30899 29813 ft 475 kts 259°
2026-04-26 18:12 16.40092 105.03911 29948 ft 482 kts 259°
2026-04-26 18:13 16.34200 104.76417 29967 ft 491 kts 259°
2026-04-26 18:13 16.28242 104.48796 29857 ft 486 kts 259°
2026-04-26 18:13 16.30066 104.21772 29990 ft 469 kts 282°
2026-04-26 18:14 16.38616 103.66705 29923 ft 486 kts 279°
2026-04-26 18:14 16.42805 103.39172 29826 ft 475 kts 279°
2026-04-26 18:14 16.46844 103.12242 29855 ft 471 kts 279°
2026-04-26 18:14 16.50896 102.85080 29973 ft 479 kts 279°
2026-04-26 18:15 16.54978 102.57422 29953 ft 485 kts 279°
2026-04-26 18:15 16.59020 102.29798 29845 ft 478 kts 279°
2026-04-26 18:15 16.62947 102.02747 29840 ft 469 kts 279°
2026-04-26 18:15 16.65458 101.75682 30022 ft 473 kts 275°
2026-04-26 18:16 16.66497 101.62394 30006 ft 478 kts 276°
2026-04-26 18:16 16.67359 101.52068 29917 ft 477 kts 276°
2026-04-26 18:17 16.67922 101.45197 29923 ft 474 kts 275°
2026-04-26 18:17 16.68474 101.38362 29913 ft 472 kts 275°
2026-04-26 18:18 16.69024 101.31542 29914 ft 472 kts 275°
2026-04-26 18:18 16.69570 101.24724 29912 ft 472 kts 275°
2026-04-26 18:19 16.70114 101.17908 29913 ft 472 kts 275°
2026-04-26 18:19 16.70657 101.11080 29913 ft 473 kts 276°
2026-04-26 18:20 16.71199 101.04242 29918 ft 473 kts 275°
2026-04-26 18:20 16.71648 100.98553 29901 ft 474 kts 275°
2026-04-26 18:21 16.72277 100.90541 29908 ft 474 kts 275°
2026-04-26 18:21 16.72813 100.83685 29901 ft 474 kts 275°
2026-04-26 18:22 16.73347 100.76829 29905 ft 474 kts 275°
2026-04-26 18:22 16.73879 100.69971 29885 ft 474 kts 275°
2026-04-26 18:23 16.74408 100.63114 29902 ft 474 kts 275°
2026-04-26 18:23 16.74936 100.56260 29866 ft 474 kts 275°
2026-04-26 18:24 16.75461 100.49388 29882 ft 476 kts 275°
2026-04-26 18:24 16.75985 100.42503 29877 ft 477 kts 275°
2026-04-26 18:25 16.76509 100.35597 29870 ft 478 kts 275°
2026-04-26 18:25 16.77031 100.28686 29877 ft 478 kts 275°
2026-04-26 18:26 16.77367 100.21756 29864 ft 478 kts 273°
2026-04-26 18:26 16.77575 100.14816 29861 ft 479 kts 272°
2026-04-26 18:27 16.77796 100.07867 29866 ft 480 kts 273°
2026-04-26 18:27 16.78042 100.00905 29861 ft 480 kts 273°
2026-04-26 18:28 16.78295 99.93941 29868 ft 481 kts 273°
2026-04-26 18:28 16.78548 99.86970 29864 ft 481 kts 273°
2026-04-26 18:29 16.78797 99.80001 29864 ft 481 kts 273°
2026-04-26 18:29 16.79042 99.73033 29866 ft 481 kts 273°
2026-04-26 18:30 16.79286 99.66059 29870 ft 481 kts 273°
2026-04-26 18:30 16.79527 99.59087 29862 ft 481 kts 273°
2026-04-26 18:31 16.79765 99.52113 29860 ft 481 kts 273°
2026-04-26 18:31 16.80001 99.45142 29871 ft 481 kts 273°
2026-04-26 18:32 16.80236 99.38168 29874 ft 481 kts 273°
2026-04-26 18:32 16.80466 99.31245 29873 ft 480 kts 273°
2026-04-26 18:33 16.80695 99.24280 29868 ft 480 kts 273°
2026-04-26 18:33 16.80921 99.17321 29873 ft 480 kts 273°
2026-04-26 18:34 16.81145 99.10359 29883 ft 480 kts 273°
2026-04-26 18:34 16.81367 99.03399 29887 ft 480 kts 272°
2026-04-26 18:35 16.81587 98.96429 29886 ft 481 kts 272°
2026-04-26 18:35 16.81806 98.89459 29893 ft 480 kts 272°
2026-04-26 18:36 16.81983 98.83661 29887 ft 481 kts 272°
2026-04-26 18:36 16.82196 98.76684 29887 ft 481 kts 272°
2026-04-26 18:37 16.82443 98.68524 29890 ft 481 kts 272°
2026-04-26 18:37 16.82616 98.62723 29881 ft 481 kts 272°
2026-04-26 18:38 16.82824 98.55737 29880 ft 482 kts 272°
2026-04-26 18:38 16.83414 98.48782 29874 ft 481 kts 280°
2026-04-26 18:39 16.85072 98.42018 29878 ft 481 kts 286°
2026-04-26 18:39 16.86986 98.35327 29878 ft 482 kts 286°
2026-04-26 18:40 16.88870 98.28617 29885 ft 480 kts 285°
2026-04-26 18:40 16.90724 98.21941 29878 ft 477 kts 285°
2026-04-26 18:41 16.92562 98.15306 29871 ft 474 kts 285°
2026-04-26 18:41 16.94389 98.08695 29855 ft 474 kts 285°
2026-04-26 18:42 16.96217 98.02080 29858 ft 474 kts 285°
2026-04-26 18:42 16.98034 97.95499 29859 ft 475 kts 285°
2026-04-26 18:43 16.99862 97.88868 29840 ft 475 kts 285°
2026-04-26 18:43 17.01565 97.82199 29843 ft 475 kts 283°
2026-04-26 18:44 17.03109 97.75485 29843 ft 475 kts 283°
2026-04-26 18:44 17.04654 97.68769 29841 ft 475 kts 283°
2026-04-26 18:45 17.06222 97.62062 29840 ft 475 kts 283°
2026-04-26 18:45 17.07802 97.55352 29835 ft 475 kts 283°
2026-04-26 18:46 17.09380 97.48641 29834 ft 475 kts 283°
2026-04-26 18:46 17.10957 97.41931 29837 ft 475 kts 283°
2026-04-26 18:47 17.12526 97.35221 29846 ft 475 kts 283°
2026-04-26 18:47 17.14092 97.28511 29844 ft 475 kts 283°
2026-04-26 18:48 17.15658 97.21803 29835 ft 475 kts 283°
2026-04-26 18:48 17.17221 97.15097 29838 ft 475 kts 283°
2026-04-26 18:49 17.18783 97.08382 29833 ft 475 kts 283°
2026-04-26 18:49 17.20342 97.01672 29832 ft 475 kts 283°
2026-04-26 18:50 17.21898 96.94959 29834 ft 475 kts 283°
2026-04-26 18:50 17.23453 96.88242 29838 ft 475 kts 283°
2026-04-26 18:51 17.25006 96.81526 29826 ft 475 kts 283°
2026-04-26 18:51 17.26556 96.74809 29824 ft 475 kts 283°
2026-04-26 18:52 17.28105 96.68085 29823 ft 475 kts 283°
2026-04-26 18:52 17.29640 96.61413 29832 ft 475 kts 283°
2026-04-26 18:53 17.30894 96.54665 29818 ft 472 kts 273°
2026-04-26 18:53 17.30537 96.47828 29833 ft 472 kts 261°
2026-04-26 18:54 17.28815 96.41199 29817 ft 473 kts 254°
2026-04-26 18:54 17.26854 96.34605 29848 ft 476 kts 254°
2026-04-26 18:55 17.24910 96.27964 29847 ft 479 kts 254°
2026-04-26 18:55 17.22984 96.21289 29850 ft 480 kts 255°
2026-04-26 18:56 17.21064 96.14609 29870 ft 479 kts 255°
2026-04-26 18:56 17.19143 96.07937 29872 ft 478 kts 254°
2026-04-26 18:57 17.17549 96.02408 29855 ft 477 kts 254°
2026-04-26 18:57 17.15312 95.94664 29854 ft 475 kts 254°
2026-04-26 18:58 17.13401 95.88057 29855 ft 474 kts 254°
2026-04-26 18:58 17.11503 95.81506 29864 ft 474 kts 254°
2026-04-26 18:59 17.09590 95.74908 29868 ft 474 kts 254°
2026-04-26 18:59 17.07672 95.68305 29864 ft 475 kts 254°
2026-04-26 19:00 17.05751 95.61702 29856 ft 475 kts 254°
2026-04-26 19:00 17.03830 95.55103 29857 ft 475 kts 254°
2026-04-26 19:01 17.01907 95.48507 29849 ft 475 kts 254°
2026-04-26 19:01 16.99981 95.41909 29855 ft 475 kts 254°
2026-04-26 19:02 16.98053 95.35314 29859 ft 475 kts 254°
2026-04-26 19:02 16.96448 95.29829 29852 ft 476 kts 254°
2026-04-26 19:03 16.94180 95.22091 29853 ft 477 kts 254°
2026-04-26 19:03 16.92235 95.15462 29851 ft 478 kts 254°
2026-04-26 19:04 16.90283 95.08819 29849 ft 478 kts 254°
2026-04-26 19:04 16.88330 95.02181 29845 ft 478 kts 254°
2026-04-26 19:05 16.85398 94.92231 29846 ft 477 kts 254°
2026-04-26 19:06 16.83448 94.85620 29833 ft 476 kts 254°
2026-04-26 19:06 16.82002 94.78947 29839 ft 470 kts 269°
2026-04-26 19:07 16.82815 94.72233 29845 ft 472 kts 285°
2026-04-26 19:07 16.85371 94.65886 29837 ft 473 kts 292°
2026-04-26 19:08 16.88052 94.59592 29849 ft 476 kts 292°
2026-04-26 19:08 16.90703 94.53250 29836 ft 477 kts 292°
2026-04-26 19:09 16.93329 94.46888 29834 ft 476 kts 292°
2026-04-26 19:09 16.95939 94.40537 29834 ft 475 kts 292°
2026-04-26 19:10 16.98540 94.34203 29838 ft 474 kts 292°
2026-04-26 19:10 17.01136 94.27877 29840 ft 473 kts 291°
2026-04-26 19:11 17.03707 94.21607 29834 ft 472 kts 291°
2026-04-26 19:11 17.06290 94.15303 29833 ft 472 kts 291°
2026-04-26 19:12 17.08871 94.08995 29830 ft 472 kts 291°
2026-04-26 19:12 17.11455 94.02675 29834 ft 473 kts 291°
2026-04-26 19:13 17.14039 93.96349 29832 ft 473 kts 291°
2026-04-26 19:13 17.16622 93.90016 29831 ft 474 kts 291°
2026-04-26 19:14 17.19205 93.83679 29831 ft 474 kts 291°
2026-04-26 19:14 17.21786 93.77341 29833 ft 474 kts 291°
2026-04-26 19:15 17.24368 93.70992 29832 ft 474 kts 291°
2026-04-26 19:15 17.26945 93.64649 29835 ft 474 kts 291°
2026-04-26 19:16 17.29522 93.58300 29835 ft 474 kts 291°
2026-04-26 19:16 17.32095 93.51952 29828 ft 474 kts 291°
2026-04-26 19:17 17.34668 93.45600 29829 ft 474 kts 291°
2026-04-26 19:17 17.37237 93.39250 29843 ft 474 kts 291°
2026-04-26 19:18 17.39783 93.32951 29820 ft 472 kts 291°
2026-04-26 19:18 17.42333 93.26634 29821 ft 471 kts 291°
2026-04-26 19:19 17.44878 93.20323 29822 ft 470 kts 291°
2026-04-26 19:19 17.47419 93.14017 29833 ft 470 kts 291°
2026-04-26 19:20 17.49957 93.07708 29821 ft 470 kts 291°
2026-04-26 19:20 17.52494 93.01398 29823 ft 470 kts 291°
2026-04-26 19:21 17.55030 92.95082 29823 ft 471 kts 291°
2026-04-26 19:21 17.57568 92.88757 29823 ft 471 kts 291°
2026-04-26 19:22 17.60102 92.82432 29834 ft 471 kts 291°
2026-04-26 19:22 17.62638 92.76098 29835 ft 471 kts 291°
2026-04-26 19:23 17.65169 92.69768 29821 ft 471 kts 291°
2026-04-26 19:23 17.67697 92.63436 29818 ft 471 kts 291°
2026-04-26 19:24 17.70225 92.57101 29817 ft 471 kts 291°
2026-04-26 19:24 17.73999 92.47629 29824 ft 471 kts 291°
2026-04-26 19:25 17.75687 92.43388 29822 ft 471 kts 291°
2026-04-26 19:25 17.79046 92.34939 29824 ft 471 kts 291°
2026-04-26 19:26 17.81567 92.28590 29816 ft 471 kts 291°
2026-04-26 19:26 17.84088 92.22233 29823 ft 472 kts 291°
2026-04-26 19:27 17.86187 92.16934 29822 ft 473 kts 291°
2026-04-26 19:27 17.88733 92.10501 29821 ft 474 kts 291°
2026-04-26 19:28 17.91243 92.04150 29820 ft 474 kts 291°
2026-04-26 19:28 17.93768 91.97750 29817 ft 474 kts 291°
2026-04-26 19:29 17.96254 91.91341 29815 ft 474 kts 290°
2026-04-26 19:29 17.98730 91.84924 29828 ft 474 kts 290°
2026-04-26 19:30 18.01206 91.78505 29815 ft 474 kts 290°
2026-04-26 19:30 18.03265 91.73171 29806 ft 474 kts 290°
2026-04-26 19:31 18.06161 91.65660 29807 ft 474 kts 290°
2026-04-26 19:31 18.08637 91.59233 29835 ft 474 kts 291°
2026-04-26 19:32 18.11103 91.52823 29806 ft 472 kts 291°
2026-04-26 19:32 18.13555 91.46444 29806 ft 470 kts 291°
2026-04-26 19:33 18.15995 91.40088 29806 ft 468 kts 291°
2026-04-26 19:33 18.18429 91.33741 29808 ft 468 kts 291°
2026-04-26 19:34 18.20844 91.27435 29806 ft 468 kts 291°
2026-04-26 19:34 18.23276 91.21076 29804 ft 469 kts 291°
2026-04-26 19:35 18.25713 91.14699 29807 ft 470 kts 291°
2026-04-26 19:35 18.28148 91.08319 29805 ft 470 kts 291°
2026-04-26 19:36 18.30172 91.03012 29800 ft 470 kts 291°
2026-04-26 19:36 18.33013 90.95551 29806 ft 470 kts 291°
2026-04-26 19:37 18.35441 90.89168 29800 ft 470 kts 291°
2026-04-26 19:37 18.37866 90.82785 29797 ft 469 kts 291°
2026-04-26 19:38 18.40289 90.76400 29803 ft 469 kts 291°
2026-04-26 19:38 18.42707 90.70022 29801 ft 469 kts 290°
2026-04-26 19:39 18.45122 90.63643 29803 ft 468 kts 290°
2026-04-26 19:39 18.47529 90.57278 29792 ft 467 kts 290°
2026-04-26 19:40 18.49927 90.50930 29796 ft 466 kts 290°
2026-04-26 19:40 18.52318 90.44591 29792 ft 465 kts 290°
2026-04-26 19:41 18.54706 90.38255 29787 ft 465 kts 290°
2026-04-26 19:41 18.56687 90.32992 29793 ft 465 kts 290°
2026-04-26 19:42 18.59472 90.25585 29792 ft 465 kts 290°
2026-04-26 19:42 18.61853 90.19244 29792 ft 465 kts 290°
2026-04-26 19:43 18.64234 90.12895 29791 ft 465 kts 290°
2026-04-26 19:43 18.66613 90.06547 29792 ft 465 kts 290°
2026-04-26 19:44 18.68974 90.00238 29795 ft 466 kts 290°
2026-04-26 19:44 18.71348 89.93885 29788 ft 466 kts 290°
2026-04-26 19:45 18.73721 89.87530 29787 ft 466 kts 290°
2026-04-26 19:45 18.76091 89.81175 29789 ft 465 kts 290°
2026-04-26 19:46 18.78459 89.74816 29790 ft 465 kts 290°
2026-04-26 19:46 18.80824 89.68457 29787 ft 465 kts 290°
2026-04-26 19:47 18.82804 89.63130 29790 ft 465 kts 290°
2026-04-26 19:47 18.85546 89.55741 29788 ft 465 kts 290°
2026-04-26 19:48 18.87905 89.49377 29787 ft 465 kts 290°
2026-04-26 19:48 18.90261 89.43014 29787 ft 465 kts 290°
2026-04-26 19:49 18.92615 89.36648 29783 ft 465 kts 290°
2026-04-26 19:49 18.94967 89.30279 29784 ft 465 kts 290°
2026-04-26 19:50 18.97318 89.23906 29784 ft 465 kts 290°
2026-04-26 19:50 18.99666 89.17533 29781 ft 465 kts 290°
2026-04-26 19:51 19.02010 89.11162 29782 ft 465 kts 290°
2026-04-26 19:51 19.04352 89.04791 29784 ft 465 kts 290°
2026-04-26 19:52 19.06692 88.98416 29782 ft 465 kts 290°
2026-04-26 19:52 19.09029 88.92042 29777 ft 465 kts 290°
2026-04-26 19:53 19.11365 88.85662 29781 ft 465 kts 290°
2026-04-26 19:53 19.13694 88.79295 29780 ft 463 kts 289°
2026-04-26 19:54 19.16013 88.72946 29773 ft 462 kts 289°
2026-04-26 19:54 19.18320 88.66623 29774 ft 460 kts 289°
2026-04-26 19:55 19.20687 88.60328 29772 ft 460 kts 290°
2026-04-26 19:55 19.23099 88.54058 29777 ft 460 kts 290°
2026-04-26 19:56 19.25493 88.47819 29777 ft 461 kts 290°
2026-04-26 19:56 19.27895 88.41523 29775 ft 462 kts 290°
2026-04-26 19:57 19.30294 88.35217 29774 ft 462 kts 290°
2026-04-26 19:57 19.32694 88.28900 29773 ft 462 kts 290°
2026-04-26 19:58 19.35091 88.22584 29776 ft 462 kts 290°
2026-04-26 19:58 19.37486 88.16264 29772 ft 462 kts 290°
2026-04-26 19:59 19.39879 88.09944 29767 ft 462 kts 290°
2026-04-26 19:59 19.42269 88.03624 29767 ft 462 kts 290°
2026-04-26 20:00 19.44656 87.97303 29770 ft 462 kts 290°
2026-04-26 20:00 19.47036 87.90995 29773 ft 460 kts 290°
2026-04-26 20:01 19.49400 87.84721 29765 ft 457 kts 290°
2026-04-26 20:01 19.51752 87.78471 29766 ft 456 kts 290°
2026-04-26 20:02 19.54097 87.72230 29769 ft 456 kts 290°
2026-04-26 20:02 19.56046 87.67039 29764 ft 456 kts 290°
2026-04-26 20:03 19.58792 87.59714 29764 ft 458 kts 290°
2026-04-26 20:03 19.61144 87.53436 29765 ft 459 kts 290°
2026-04-26 20:04 19.63496 87.47146 29759 ft 459 kts 290°
2026-04-26 20:04 19.65847 87.40853 29759 ft 459 kts 290°
2026-04-26 20:05 19.68201 87.34545 29760 ft 459 kts 290°
2026-04-26 20:05 19.70548 87.28248 29753 ft 459 kts 290°
2026-04-26 20:06 19.72896 87.21938 29755 ft 460 kts 290°
2026-04-26 20:06 19.75245 87.15620 29754 ft 460 kts 290°
2026-04-26 20:07 19.77595 87.09290 29766 ft 460 kts 290°
2026-04-26 20:07 19.79934 87.02983 29745 ft 457 kts 290°
2026-04-26 20:08 19.82254 86.96721 29746 ft 455 kts 290°
2026-04-26 20:08 19.84562 86.90480 29743 ft 453 kts 290°
2026-04-26 20:09 19.86860 86.84258 29744 ft 453 kts 290°
2026-04-26 20:09 19.89159 86.78027 29743 ft 454 kts 290°
2026-04-26 20:10 19.91465 86.71770 29736 ft 455 kts 290°
2026-04-26 20:10 19.93766 86.65501 29734 ft 456 kts 290°
2026-04-26 20:11 19.96061 86.59227 29740 ft 456 kts 290°
2026-04-26 20:12 19.99117 86.50862 29737 ft 456 kts 290°
2026-04-26 20:12 20.01411 86.44573 29742 ft 456 kts 290°
2026-04-26 20:13 20.03705 86.38278 29732 ft 456 kts 289°
2026-04-26 20:13 20.05996 86.31984 29731 ft 456 kts 289°
2026-04-26 20:14 20.08281 86.25695 29732 ft 456 kts 289°
2026-04-26 20:14 20.10566 86.19403 29750 ft 455 kts 289°
2026-04-26 20:15 20.12842 86.13139 29719 ft 452 kts 289°
2026-04-26 20:15 20.15111 86.06910 29725 ft 451 kts 289°
2026-04-26 20:16 20.17372 86.00693 29725 ft 450 kts 289°
2026-04-26 20:16 20.19614 85.94513 29727 ft 451 kts 289°
2026-04-26 20:17 20.21875 85.88277 29721 ft 452 kts 289°
2026-04-26 20:17 20.23979 85.81982 29716 ft 451 kts 284°
2026-04-26 20:18 20.25197 85.75443 29722 ft 451 kts 277°
2026-04-26 20:18 20.26001 85.68809 29715 ft 451 kts 277°
2026-04-26 20:19 20.26825 85.62184 29718 ft 452 kts 277°
2026-04-26 20:19 20.27658 85.55554 29725 ft 452 kts 277°
2026-04-26 20:20 20.28492 85.48921 29718 ft 452 kts 277°
2026-04-26 20:20 20.29325 85.42285 29711 ft 452 kts 277°
2026-04-26 20:21 20.30152 85.35659 29724 ft 451 kts 277°
2026-04-26 20:21 20.30978 85.29031 29709 ft 451 kts 277°
2026-04-26 20:22 20.31801 85.22402 29719 ft 451 kts 277°
2026-04-26 20:22 20.32620 85.15784 29715 ft 451 kts 277°
2026-04-26 20:23 20.33438 85.09159 29724 ft 451 kts 277°
2026-04-26 20:23 20.34247 85.02581 29723 ft 451 kts 277°
2026-04-26 20:24 20.35060 84.95949 29722 ft 451 kts 277°
2026-04-26 20:24 20.35868 84.89333 29720 ft 451 kts 277°
2026-04-26 20:25 20.36675 84.82706 29724 ft 450 kts 277°
2026-04-26 20:25 20.37478 84.76093 29715 ft 450 kts 277°
2026-04-26 20:26 20.38278 84.69475 29731 ft 450 kts 277°
2026-04-26 20:26 20.39079 84.62852 29739 ft 450 kts 277°
2026-04-26 20:27 20.39873 84.56245 29711 ft 449 kts 277°
2026-04-26 20:27 20.40662 84.49664 29726 ft 446 kts 277°
2026-04-26 20:28 20.41445 84.43111 29712 ft 446 kts 277°
2026-04-26 20:28 20.42226 84.36555 29720 ft 446 kts 277°
2026-04-26 20:29 20.43007 84.29976 29713 ft 447 kts 277°
2026-04-26 20:29 20.43787 84.23383 29731 ft 448 kts 278°
2026-04-26 20:30 20.44756 84.16867 29743 ft 446 kts 277°
2026-04-26 20:30 20.45452 84.10272 29722 ft 449 kts 276°
2026-04-26 20:31 20.46135 84.03636 29727 ft 451 kts 277°
2026-04-26 20:31 20.46878 83.97000 29725 ft 451 kts 277°
2026-04-26 20:32 20.47649 83.90368 29704 ft 451 kts 277°
2026-04-26 20:32 20.48416 83.83784 29706 ft 450 kts 277°
2026-04-26 20:33 20.49182 83.77168 29708 ft 450 kts 277°
2026-04-26 20:33 20.49946 83.70552 29688 ft 450 kts 277°
2026-04-26 20:34 20.50706 83.63934 29675 ft 449 kts 277°
2026-04-26 20:34 20.51463 83.57314 29678 ft 449 kts 277°
2026-04-26 20:35 20.52217 83.50701 29673 ft 449 kts 277°
2026-04-26 20:35 20.52969 83.44083 29678 ft 449 kts 277°
2026-04-26 20:36 20.53718 83.37464 29667 ft 449 kts 277°
2026-04-26 20:36 20.54466 83.30846 29683 ft 449 kts 277°
2026-04-26 20:37 20.55211 83.24226 29679 ft 449 kts 277°
2026-04-26 20:37 20.55952 83.17606 29675 ft 450 kts 277°
2026-04-26 20:38 20.56692 83.10980 29684 ft 450 kts 277°
2026-04-26 20:38 20.57430 83.04354 29689 ft 450 kts 277°
2026-04-26 20:39 20.58165 82.97726 29685 ft 450 kts 277°
2026-04-26 20:39 20.58961 82.91097 29694 ft 450 kts 278°
2026-04-26 20:40 20.59868 82.84540 29700 ft 450 kts 278°
2026-04-26 20:40 20.60785 82.77938 29682 ft 450 kts 278°
2026-04-26 20:41 20.61691 82.71272 29695 ft 450 kts 278°
2026-04-26 20:41 20.62580 82.64660 29700 ft 450 kts 278°
2026-04-26 20:42 20.63464 82.58048 29697 ft 450 kts 278°
2026-04-26 20:42 20.64341 82.51473 29695 ft 450 kts 278°
2026-04-26 20:43 20.65219 82.44879 29697 ft 449 kts 277°
2026-04-26 20:43 20.66096 82.38271 29693 ft 449 kts 277°
2026-04-26 20:44 20.66970 82.31668 29693 ft 449 kts 277°
2026-04-26 20:44 20.67840 82.25074 29694 ft 449 kts 277°
2026-04-26 20:45 20.68707 82.18480 29706 ft 449 kts 277°
2026-04-26 20:45 20.69573 82.11877 29703 ft 449 kts 277°
2026-04-26 20:46 20.70466 82.05287 29705 ft 448 kts 279°
2026-04-26 20:46 20.71333 81.98682 30011 ft 452 kts 277°
2026-04-26 20:46 20.71732 81.95358 30498 ft 450 kts 277°
2026-04-26 20:47 20.72151 81.92061 31052 ft 446 kts 277°
2026-04-26 20:47 20.72437 81.89891 31425 ft 444 kts 277°
2026-04-26 20:47 20.73277 81.85565 31663 ft 448 kts 286°
2026-04-26 20:48 20.74760 81.79202 31701 ft 441 kts 277°
2026-04-26 20:48 20.76639 81.72904 31705 ft 452 kts 295°
2026-04-26 20:49 20.79113 81.66894 31687 ft 440 kts 275°
2026-04-26 20:49 20.78899 81.63643 31711 ft 442 kts 258°
2026-04-26 20:49 20.78070 81.60467 31710 ft 444 kts 257°
2026-04-26 20:50 20.77297 81.53932 31709 ft 446 kts 271°
2026-04-26 20:50 20.77951 81.47328 31712 ft 448 kts 278°
2026-04-26 20:51 20.78914 81.40739 31702 ft 447 kts 277°
2026-04-26 20:51 20.79776 81.34174 31701 ft 445 kts 277°
2026-04-26 20:52 20.80631 81.27639 31715 ft 443 kts 277°
2026-04-26 20:52 20.81487 81.21121 31712 ft 442 kts 277°
2026-04-26 20:53 20.82334 81.14650 31717 ft 442 kts 277°
2026-04-26 20:53 20.83183 81.08144 31718 ft 442 kts 277°
2026-04-26 20:54 20.84030 81.01631 31725 ft 443 kts 277°
2026-04-26 20:54 20.84876 80.95109 31722 ft 443 kts 276°
2026-04-26 20:55 20.85715 80.88575 31735 ft 444 kts 276°
2026-04-26 20:55 20.86542 80.82031 31723 ft 444 kts 276°
2026-04-26 20:56 20.87367 80.75491 31729 ft 444 kts 276°
2026-04-26 20:56 20.88191 80.68952 31735 ft 444 kts 276°
2026-04-26 20:57 20.89014 80.62413 31735 ft 443 kts 276°
2026-04-26 20:57 20.89841 80.55891 31732 ft 442 kts 276°
2026-04-26 20:58 20.90663 80.49407 31722 ft 442 kts 276°
2026-04-26 20:58 20.91485 80.42893 31743 ft 442 kts 276°
2026-04-26 20:59 20.92304 80.36376 31737 ft 442 kts 276°
2026-04-26 20:59 20.93125 80.29825 31745 ft 443 kts 276°
2026-04-26 21:00 20.93937 80.23324 31739 ft 443 kts 276°
2026-04-26 21:00 20.94748 80.16803 31742 ft 443 kts 276°
2026-04-26 21:01 20.95561 80.10256 31757 ft 444 kts 276°
2026-04-26 21:01 20.96365 80.03757 31747 ft 444 kts 276°
2026-04-26 21:02 20.97043 79.98260 31750 ft 445 kts 276°
2026-04-26 21:02 20.97851 79.91698 31741 ft 445 kts 276°
2026-04-26 21:03 20.98654 79.85142 31742 ft 444 kts 276°
2026-04-26 21:03 20.99455 79.78593 31737 ft 444 kts 276°
2026-04-26 21:04 21.00255 79.72027 31750 ft 445 kts 276°
2026-04-26 21:04 21.01052 79.65462 31743 ft 445 kts 276°
2026-04-26 21:05 21.01847 79.58894 31733 ft 445 kts 276°
2026-04-26 21:05 21.02639 79.52325 31742 ft 445 kts 276°
2026-04-26 21:06 21.03429 79.45753 31747 ft 445 kts 276°
2026-04-26 21:06 21.04211 79.39228 31758 ft 445 kts 276°
2026-04-26 21:07 21.04996 79.32654 31746 ft 445 kts 276°
2026-04-26 21:07 21.05779 79.26078 31748 ft 445 kts 276°
2026-04-26 21:08 21.06558 79.19515 31753 ft 445 kts 276°
2026-04-26 21:08 21.07335 79.12943 31760 ft 445 kts 276°
2026-04-26 21:09 21.08209 79.06391 31751 ft 446 kts 279°
2026-04-26 21:09 21.09926 78.99998 31755 ft 448 kts 286°
2026-04-26 21:10 21.11963 78.93685 31756 ft 449 kts 286°
2026-04-26 21:10 21.13971 78.87351 31763 ft 449 kts 285°
2026-04-26 21:11 21.15964 78.81023 31753 ft 449 kts 285°
2026-04-26 21:11 21.17961 78.74686 31763 ft 448 kts 285°
2026-04-26 21:12 21.19955 78.68357 31782 ft 449 kts 285°
2026-04-26 21:12 21.21959 78.62002 31767 ft 451 kts 285°
2026-04-26 21:13 21.23957 78.55659 31760 ft 453 kts 285°
2026-04-26 21:13 21.25970 78.49263 31763 ft 453 kts 285°
2026-04-26 21:14 21.27977 78.42870 31774 ft 452 kts 285°
2026-04-26 21:14 21.29979 78.36486 31775 ft 451 kts 285°
2026-04-26 21:15 21.31974 78.30113 31773 ft 450 kts 285°
2026-04-26 21:15 21.33963 78.23747 31770 ft 450 kts 285°
2026-04-26 21:16 21.35948 78.17388 31788 ft 449 kts 285°
2026-04-26 21:16 21.37928 78.11036 31788 ft 449 kts 285°
2026-04-26 21:17 21.39895 78.04714 31789 ft 450 kts 285°
2026-04-26 21:17 21.41876 77.98338 31783 ft 450 kts 285°
2026-04-26 21:18 21.43855 77.91960 31791 ft 451 kts 285°
2026-04-26 21:18 21.45836 77.85563 31794 ft 452 kts 285°
2026-04-26 21:19 21.47817 77.79160 31797 ft 453 kts 285°
2026-04-26 21:19 21.49798 77.72747 31794 ft 452 kts 285°
2026-04-26 21:20 21.51784 77.66335 31792 ft 452 kts 285°
2026-04-26 21:20 21.53834 77.59944 31794 ft 453 kts 286°
2026-04-26 21:21 21.55895 77.53552 31787 ft 453 kts 285°
2026-04-26 21:21 21.57943 77.47154 31798 ft 453 kts 285°
2026-04-26 21:22 21.59987 77.40752 31804 ft 453 kts 285°
2026-04-26 21:22 21.62053 77.34397 31803 ft 454 kts 287°
2026-04-26 21:23 21.65331 77.24804 31800 ft 454 kts 287°
2026-04-26 21:23 21.67484 77.18481 31796 ft 453 kts 287°
2026-04-26 21:24 21.69641 77.12108 31799 ft 453 kts 287°
2026-04-26 21:24 21.71792 77.05729 31796 ft 454 kts 287°
2026-04-26 21:25 21.73941 76.99350 31798 ft 454 kts 286°
2026-04-26 21:25 21.76090 76.92965 31787 ft 454 kts 286°
2026-04-26 21:26 21.78234 76.86584 31794 ft 454 kts 286°
2026-04-26 21:26 21.80379 76.80191 31793 ft 454 kts 286°
2026-04-26 21:27 21.82523 76.73793 31784 ft 454 kts 286°
2026-04-26 21:27 21.84663 76.67395 31791 ft 454 kts 286°
2026-04-26 21:28 21.86801 76.60993 31782 ft 455 kts 286°
2026-04-26 21:28 21.88939 76.54587 31781 ft 455 kts 286°
2026-04-26 21:29 21.90401 76.50203 31794 ft 455 kts 286°
2026-04-26 21:29 21.92544 76.43781 31788 ft 457 kts 286°
2026-04-26 21:30 21.94693 76.37333 31790 ft 458 kts 286°
2026-04-26 21:30 21.96842 76.30871 31787 ft 459 kts 286°
2026-04-26 21:31 21.98992 76.24400 31786 ft 459 kts 286°
2026-04-26 21:31 22.01139 76.17926 31788 ft 459 kts 286°
2026-04-26 21:32 22.03284 76.11450 31779 ft 459 kts 286°
2026-04-26 21:32 22.05426 76.04970 31791 ft 459 kts 286°
2026-04-26 21:33 22.07560 75.98486 31793 ft 459 kts 285°
2026-04-26 21:33 22.09578 75.91965 31788 ft 458 kts 285°
2026-04-26 21:34 22.11551 75.85436 31796 ft 458 kts 285°
2026-04-26 21:34 22.13533 75.78898 31797 ft 458 kts 285°
2026-04-26 21:35 22.15522 75.72364 31794 ft 460 kts 285°
2026-04-26 21:35 22.17526 75.65789 31797 ft 463 kts 285°
2026-04-26 21:36 22.19199 75.60291 31792 ft 465 kts 285°
2026-04-26 21:36 22.21559 75.52522 31798 ft 467 kts 285°
2026-04-26 21:37 22.23578 75.45864 31793 ft 467 kts 285°
2026-04-26 21:37 22.25580 75.39254 31791 ft 466 kts 285°
2026-04-26 21:38 22.27587 75.32612 31783 ft 465 kts 285°
2026-04-26 21:38 22.29590 75.25973 31783 ft 464 kts 285°
2026-04-26 21:39 22.31586 75.19346 31793 ft 464 kts 285°
2026-04-26 21:39 22.33577 75.12724 31793 ft 464 kts 285°
2026-04-26 21:40 22.35565 75.06100 31792 ft 464 kts 285°
2026-04-26 21:40 22.37553 74.99469 31793 ft 464 kts 285°
2026-04-26 21:41 22.39541 74.92823 31810 ft 466 kts 285°
2026-04-26 21:41 22.41542 74.86121 31808 ft 471 kts 286°
2026-04-26 21:42 22.43559 74.79362 31810 ft 474 kts 286°
2026-04-26 21:42 22.45584 74.72564 31806 ft 476 kts 286°
2026-04-26 21:43 22.47609 74.65752 31800 ft 475 kts 286°
2026-04-26 21:43 22.49627 74.58951 31805 ft 474 kts 286°
2026-04-26 21:44 22.51637 74.52166 31803 ft 473 kts 285°
2026-04-26 21:44 22.53625 74.45442 31799 ft 472 kts 285°
2026-04-26 21:45 22.55622 74.38676 31803 ft 472 kts 285°
2026-04-26 21:45 22.57615 74.31912 31790 ft 472 kts 285°
2026-04-26 21:46 22.59610 74.25131 31804 ft 474 kts 285°
2026-04-26 21:46 22.61621 74.18332 31797 ft 475 kts 286°
2026-04-26 21:47 22.63660 74.11518 31790 ft 478 kts 287°
2026-04-26 21:47 22.65704 74.04635 31799 ft 482 kts 287°
2026-04-26 21:48 22.67756 73.97695 31794 ft 486 kts 287°
2026-04-26 21:48 22.69817 73.90716 31785 ft 487 kts 287°
2026-04-26 21:49 22.71878 73.83729 31781 ft 487 kts 287°
2026-04-26 21:49 22.73934 73.76747 31774 ft 486 kts 287°
2026-04-26 21:50 22.75635 73.70958 31774 ft 485 kts 287°
2026-04-26 21:50 22.78022 73.62826 31764 ft 484 kts 287°
2026-04-26 21:51 22.80058 73.55876 31768 ft 484 kts 287°
2026-04-26 21:51 22.82094 73.48921 31761 ft 484 kts 287°
2026-04-26 21:52 22.84129 73.41960 31759 ft 485 kts 287°
2026-04-26 21:52 22.85819 73.36166 31754 ft 485 kts 287°
2026-04-26 21:53 22.88183 73.28019 31758 ft 490 kts 287°
2026-04-26 21:53 22.90231 73.20948 31754 ft 493 kts 287°
2026-04-26 21:54 22.92287 73.13836 31750 ft 495 kts 287°
2026-04-26 21:54 22.94012 73.07859 31744 ft 495 kts 287°
2026-04-26 21:55 22.96066 73.00729 31744 ft 495 kts 287°
2026-04-26 21:55 22.98099 72.93658 31732 ft 494 kts 287°
2026-04-26 21:56 23.00140 72.86548 31730 ft 493 kts 287°
2026-04-26 21:56 23.02177 72.79439 31725 ft 493 kts 287°
2026-04-26 21:57 23.04210 72.72330 31720 ft 493 kts 287°
2026-04-26 21:57 23.05993 72.65161 31714 ft 493 kts 278°
2026-04-26 21:58 23.06248 72.57738 31721 ft 493 kts 265°
2026-04-26 21:58 23.05246 72.50373 31726 ft 494 kts 261°
2026-04-26 21:59 23.04139 72.43011 31728 ft 494 kts 261°
2026-04-26 21:59 23.03065 72.35635 31734 ft 495 kts 261°
2026-04-26 22:00 23.02016 72.28244 31741 ft 495 kts 261°
2026-04-26 22:00 23.00970 72.20852 31743 ft 496 kts 262°
2026-04-26 22:01 22.99918 72.13449 31745 ft 496 kts 261°
2026-04-26 22:01 22.98861 72.06044 31745 ft 497 kts 262°
2026-04-26 22:02 22.97798 71.98633 31744 ft 497 kts 261°
2026-04-26 22:02 22.96732 71.91223 31748 ft 497 kts 262°
2026-04-26 22:03 22.95662 71.83808 31752 ft 498 kts 261°
2026-04-26 22:03 22.94587 71.76384 31755 ft 499 kts 261°
2026-04-26 22:04 22.93506 71.68948 31759 ft 499 kts 261°
2026-04-26 22:04 22.92421 71.61506 31759 ft 500 kts 261°
2026-04-26 22:05 22.91332 71.54065 31766 ft 500 kts 261°
2026-04-26 22:05 22.90240 71.46622 31767 ft 499 kts 261°
2026-04-26 22:06 22.89145 71.39190 31766 ft 499 kts 261°
2026-04-26 22:06 22.88048 71.31762 31767 ft 499 kts 261°
2026-04-26 22:07 22.86947 71.24337 31770 ft 499 kts 261°
2026-04-26 22:07 22.85843 71.16914 31769 ft 498 kts 261°
2026-04-26 22:08 22.84737 71.09499 31778 ft 498 kts 261°
2026-04-26 22:08 22.83626 71.02081 31786 ft 498 kts 261°
2026-04-26 22:09 22.82514 70.94671 31789 ft 498 kts 261°
2026-04-26 22:09 22.81399 70.87259 31791 ft 498 kts 261°
2026-04-26 22:10 22.80930 70.79784 31785 ft 497 kts 272°
2026-04-26 22:10 22.81430 70.72363 31789 ft 496 kts 274°
2026-04-26 22:11 22.81960 70.64905 31783 ft 496 kts 274°
2026-04-26 22:11 22.82450 70.57443 31781 ft 496 kts 274°
2026-04-26 22:12 22.82918 70.49976 31781 ft 496 kts 274°
2026-04-26 22:12 22.83380 70.42512 31779 ft 497 kts 274°
2026-04-26 22:13 22.83841 70.35034 31782 ft 497 kts 274°
2026-04-26 22:13 22.84300 70.27552 31778 ft 498 kts 274°
2026-04-26 22:14 22.84755 70.20070 31778 ft 498 kts 274°
2026-04-26 22:14 22.85207 70.12588 31774 ft 498 kts 274°
2026-04-26 22:15 22.85655 70.05107 31775 ft 497 kts 274°
2026-04-26 22:15 22.86099 69.97637 31774 ft 497 kts 274°
2026-04-26 22:16 22.86540 69.90158 31776 ft 496 kts 274°
2026-04-26 22:16 22.86977 69.82685 31775 ft 496 kts 274°
2026-04-26 22:17 22.87411 69.75221 31774 ft 496 kts 274°
2026-04-26 22:17 22.87846 69.67756 31771 ft 496 kts 274°
2026-04-26 22:18 22.88324 69.60346 31776 ft 496 kts 275°
2026-04-26 22:18 22.88817 69.52888 31775 ft 496 kts 274°
2026-04-26 22:19 22.89299 69.45434 31773 ft 496 kts 275°
2026-04-26 22:19 22.89774 69.37973 31769 ft 496 kts 274°
2026-04-26 22:20 22.90166 69.31753 31770 ft 496 kts 275°
2026-04-26 22:20 22.90712 69.23038 31766 ft 497 kts 274°
2026-04-26 22:21 22.91176 69.15568 31769 ft 496 kts 275°
2026-04-26 22:21 22.91637 69.08090 31767 ft 496 kts 275°
2026-04-26 22:22 22.92094 69.00623 31767 ft 496 kts 275°
2026-04-26 22:22 22.92548 68.93150 31769 ft 496 kts 274°
2026-04-26 22:23 22.92998 68.85683 31764 ft 496 kts 275°
2026-04-26 22:23 22.93445 68.78210 31768 ft 496 kts 274°
2026-04-26 22:24 22.93888 68.70737 31771 ft 497 kts 275°
2026-04-26 22:24 22.94328 68.63263 31769 ft 497 kts 274°
2026-04-26 22:25 22.94764 68.55783 31770 ft 497 kts 275°
2026-04-26 22:25 22.95195 68.48356 31768 ft 497 kts 274°
2026-04-26 22:26 22.95625 68.40874 31771 ft 497 kts 275°
2026-04-26 22:26 22.95867 68.33372 31769 ft 497 kts 271°
2026-04-26 22:27 22.95848 68.25870 31770 ft 498 kts 271°
2026-04-26 22:27 22.95821 68.18361 31781 ft 497 kts 271°
2026-04-26 22:28 22.95815 68.10864 31768 ft 496 kts 271°
2026-04-26 22:28 22.95816 68.03385 31769 ft 495 kts 271°
2026-04-26 22:29 22.95811 67.95924 31769 ft 494 kts 271°
2026-04-26 22:29 22.95802 67.88468 31770 ft 494 kts 271°
2026-04-26 22:30 22.95805 67.81020 31772 ft 494 kts 271°
2026-04-26 22:30 22.95827 67.73573 31774 ft 494 kts 271°
2026-04-26 22:31 22.95845 67.66123 31769 ft 494 kts 271°
2026-04-26 22:31 22.95856 67.58668 31770 ft 494 kts 271°
2026-04-26 22:32 22.95861 67.51209 31768 ft 494 kts 271°
2026-04-26 22:32 22.95864 67.43748 31768 ft 495 kts 271°
2026-04-26 22:33 22.95861 67.32599 31770 ft 495 kts 271°
2026-04-26 22:34 22.95855 67.25127 31767 ft 495 kts 271°
2026-04-26 22:34 22.95846 67.17664 31763 ft 495 kts 271°
2026-04-26 22:35 22.95833 67.10192 31772 ft 495 kts 271°
2026-04-26 22:35 22.95817 67.02726 31770 ft 495 kts 271°
2026-04-26 22:36 22.95799 66.95262 31770 ft 494 kts 271°
2026-04-26 22:36 22.95831 66.87810 31766 ft 494 kts 272°
2026-04-26 22:37 22.95888 66.80363 31768 ft 493 kts 271°
2026-04-26 22:37 22.95937 66.72921 31771 ft 493 kts 271°
2026-04-26 22:38 22.95976 66.65477 31769 ft 493 kts 271°
2026-04-26 22:38 22.96009 66.58033 31767 ft 494 kts 271°
2026-04-26 22:39 22.96039 66.50587 31769 ft 493 kts 271°
2026-04-26 22:39 22.96065 66.43148 31771 ft 493 kts 271°
2026-04-26 22:40 22.96088 66.35707 31768 ft 493 kts 271°
2026-04-26 22:40 22.96108 66.28270 31767 ft 493 kts 271°
2026-04-26 22:41 22.96125 66.20832 31770 ft 493 kts 271°
2026-04-26 22:41 22.96137 66.13447 31769 ft 492 kts 271°
2026-04-26 22:42 22.96146 66.06019 31770 ft 492 kts 271°
2026-04-26 22:42 22.96152 65.98590 31769 ft 492 kts 271°
2026-04-26 22:43 22.96155 65.91162 31769 ft 492 kts 270°
2026-04-26 22:43 22.96154 65.84943 31770 ft 491 kts 271°
2026-04-26 22:44 22.96150 65.77529 31767 ft 491 kts 271°
2026-04-26 22:44 22.96142 65.70126 31765 ft 491 kts 271°
2026-04-26 22:45 22.96131 65.62725 31773 ft 491 kts 271°
2026-04-26 22:45 22.96117 65.55379 31769 ft 490 kts 271°
2026-04-26 22:46 22.96100 65.47990 31767 ft 489 kts 270°
2026-04-26 22:46 22.96079 65.40616 31769 ft 489 kts 270°
2026-04-26 22:47 22.96054 65.33237 31774 ft 489 kts 271°
2026-04-26 22:47 22.96026 65.25858 31771 ft 489 kts 270°
2026-04-26 22:48 22.95995 65.18479 31775 ft 489 kts 270°
2026-04-26 22:48 22.95961 65.11107 31769 ft 488 kts 270°
2026-04-26 22:49 22.95923 65.03744 31770 ft 487 kts 270°
2026-04-26 22:49 22.95881 64.96396 31766 ft 487 kts 270°
2026-04-26 22:50 22.95837 64.89053 31771 ft 486 kts 270°
2026-04-26 22:50 22.95908 64.81723 31767 ft 486 kts 275°
2026-04-26 22:51 22.96679 64.74449 31775 ft 485 kts 277°
2026-04-26 22:51 22.97495 64.67174 31771 ft 486 kts 277°
2026-04-26 22:52 22.98281 64.59885 31773 ft 486 kts 277°
2026-04-26 22:52 22.99047 64.52594 31772 ft 486 kts 277°
2026-04-26 22:53 22.99807 64.45296 31773 ft 487 kts 277°
2026-04-26 22:53 23.00564 64.38002 31772 ft 486 kts 277°
2026-04-26 22:54 23.01318 64.30709 31773 ft 486 kts 277°
2026-04-26 22:54 23.02065 64.23466 31771 ft 486 kts 277°
2026-04-26 22:55 23.02812 64.16180 31770 ft 486 kts 277°
2026-04-26 22:55 23.03556 64.08889 31769 ft 485 kts 277°
2026-04-26 22:56 23.04296 64.01607 31769 ft 485 kts 277°
2026-04-26 22:56 23.05032 63.94326 31772 ft 485 kts 277°
2026-04-26 22:57 23.05766 63.87049 31773 ft 485 kts 277°
2026-04-26 22:57 23.06516 63.79775 31772 ft 485 kts 277°
2026-04-26 22:58 23.07281 63.72502 31766 ft 485 kts 277°
2026-04-26 22:58 23.08042 63.65233 31771 ft 484 kts 277°
2026-04-26 22:59 23.08796 63.57964 31768 ft 484 kts 277°
2026-04-26 22:59 23.09545 63.50693 31770 ft 484 kts 277°
2026-04-26 23:00 23.10290 63.43429 31767 ft 484 kts 277°
2026-04-26 23:00 23.11032 63.36164 31769 ft 484 kts 277°
2026-04-26 23:01 23.11771 63.28902 31773 ft 484 kts 277°
2026-04-26 23:01 23.12506 63.21639 31767 ft 484 kts 277°
2026-04-26 23:02 23.13232 63.14425 31773 ft 484 kts 277°
2026-04-26 23:02 23.13961 63.07158 31772 ft 484 kts 277°
2026-04-26 23:03 23.14691 62.99838 31763 ft 484 kts 277°
2026-04-26 23:03 23.15414 62.92564 31772 ft 484 kts 277°
2026-04-26 23:04 23.16133 62.85293 31767 ft 484 kts 277°
2026-04-26 23:04 23.16843 62.78074 31768 ft 483 kts 277°
2026-04-26 23:05 23.17554 62.70814 31764 ft 483 kts 277°
2026-04-26 23:05 23.18261 62.63559 31763 ft 483 kts 277°
2026-04-26 23:06 23.18964 62.56304 31767 ft 483 kts 277°
2026-04-26 23:06 23.19664 62.49048 31761 ft 483 kts 277°
2026-04-26 23:07 23.20361 62.41793 31764 ft 483 kts 277°
2026-04-26 23:07 23.21055 62.34535 31763 ft 483 kts 277°
2026-04-26 23:08 23.21746 62.27274 31762 ft 483 kts 277°
2026-04-26 23:08 23.22433 62.20013 31764 ft 483 kts 277°
2026-04-26 23:09 23.23117 62.12751 31760 ft 483 kts 277°
2026-04-26 23:09 23.23798 62.05484 31762 ft 483 kts 277°
2026-04-26 23:10 23.24474 61.98225 31761 ft 483 kts 277°
2026-04-26 23:10 23.25148 61.90963 31764 ft 482 kts 277°
2026-04-26 23:11 23.25816 61.83718 31759 ft 481 kts 277°
2026-04-26 23:11 23.26480 61.76491 31759 ft 480 kts 277°
2026-04-26 23:12 23.27139 61.69274 31763 ft 479 kts 277°
2026-04-26 23:12 23.27795 61.62062 31758 ft 479 kts 277°
2026-04-26 23:13 23.28442 61.54905 31756 ft 479 kts 277°
2026-04-26 23:13 23.29091 61.47692 31758 ft 479 kts 277°
2026-04-26 23:14 23.29737 61.40476 31759 ft 480 kts 277°
2026-04-26 23:14 23.30380 61.33252 31757 ft 480 kts 277°
2026-04-26 23:15 23.31019 61.26030 31763 ft 480 kts 277°
2026-04-26 23:15 23.31656 61.18806 31762 ft 480 kts 277°
2026-04-26 23:16 23.32454 61.11611 31765 ft 479 kts 279°
2026-04-26 23:16 23.33414 61.04441 31762 ft 479 kts 279°
2026-04-26 23:17 23.34348 60.97268 31772 ft 478 kts 279°
2026-04-26 23:17 23.35245 60.90110 31760 ft 477 kts 278°
2026-04-26 23:18 23.36131 60.82964 31763 ft 476 kts 278°
2026-04-26 23:18 23.37014 60.75831 31763 ft 475 kts 278°
2026-04-26 23:19 23.37898 60.68709 31765 ft 474 kts 279°
2026-04-26 23:19 23.39411 60.61747 31764 ft 473 kts 289°
2026-04-26 23:20 23.41822 60.55087 31765 ft 473 kts 292°
2026-04-26 23:20 23.44278 60.48497 31762 ft 473 kts 292°
2026-04-26 23:21 23.46745 60.41796 31764 ft 474 kts 292°
2026-04-26 23:21 23.49162 60.35174 31780 ft 474 kts 291°
2026-04-26 23:22 23.51587 60.28510 31768 ft 473 kts 291°
2026-04-26 23:22 23.54008 60.21848 31763 ft 472 kts 291°
2026-04-26 23:23 23.56423 60.15193 31763 ft 472 kts 291°
2026-04-26 23:23 23.58833 60.08543 31766 ft 471 kts 291°
2026-04-26 23:24 23.61237 60.01901 31761 ft 471 kts 291°
2026-04-26 23:24 23.63638 59.95254 31767 ft 471 kts 291°
2026-04-26 23:25 23.66036 59.88608 31760 ft 471 kts 291°
2026-04-26 23:25 23.68430 59.81962 31771 ft 471 kts 291°
2026-04-26 23:26 23.70818 59.75320 31767 ft 470 kts 291°
2026-04-26 23:26 23.73203 59.68680 31766 ft 470 kts 291°
2026-04-26 23:27 23.75583 59.62041 31769 ft 470 kts 291°
2026-04-26 23:27 23.77959 59.55402 31762 ft 469 kts 291°
2026-04-26 23:28 23.80332 59.48763 31763 ft 469 kts 291°
2026-04-26 23:28 23.82703 59.42120 31764 ft 470 kts 291°
2026-04-26 23:29 23.85071 59.35471 31773 ft 469 kts 291°
2026-04-26 23:29 23.87432 59.28835 31762 ft 468 kts 291°
2026-04-26 23:30 23.89388 59.23325 31764 ft 467 kts 291°
2026-04-26 23:30 23.91735 59.16711 31766 ft 466 kts 291°
2026-04-26 23:31 23.94251 59.10186 31762 ft 466 kts 294°
2026-04-26 23:31 23.97018 59.03780 31762 ft 466 kts 295°
2026-04-26 23:32 23.99789 58.97370 31763 ft 466 kts 295°
2026-04-26 23:32 24.02538 58.90950 31771 ft 466 kts 294°
2026-04-26 23:33 24.05276 58.84525 31764 ft 466 kts 294°
2026-04-26 23:33 24.08012 58.78099 31763 ft 465 kts 294°
2026-04-26 23:34 24.10741 58.71680 31760 ft 465 kts 294°
2026-04-26 23:34 24.13468 58.65259 31765 ft 465 kts 294°
2026-04-26 23:35 24.16192 58.58836 31765 ft 465 kts 294°
2026-04-26 23:35 24.18911 58.52413 31773 ft 465 kts 294°
2026-04-26 23:36 24.21629 58.45983 31761 ft 465 kts 294°
2026-04-26 23:36 24.24342 58.39555 31761 ft 465 kts 294°
2026-04-26 23:37 24.27050 58.33130 31766 ft 464 kts 294°
2026-04-26 23:37 24.29754 58.26706 31761 ft 464 kts 294°
2026-04-26 23:38 24.32455 58.20279 31760 ft 464 kts 294°
2026-04-26 23:38 24.35154 58.13848 31765 ft 464 kts 294°
2026-04-26 23:39 24.37829 58.07465 31769 ft 464 kts 293°
2026-04-26 23:39 24.40518 58.01038 31762 ft 463 kts 293°
2026-04-26 23:40 24.43204 57.94611 31764 ft 463 kts 293°
2026-04-26 23:40 24.45884 57.88186 31761 ft 463 kts 293°
2026-04-26 23:41 24.48560 57.81763 31764 ft 463 kts 293°
2026-04-26 23:41 24.51196 57.75321 31764 ft 463 kts 292°
2026-04-26 23:42 24.53666 57.68800 31764 ft 463 kts 291°
2026-04-26 23:42 24.57351 57.58998 31762 ft 463 kts 291°
2026-04-26 23:43 24.59829 57.52463 31762 ft 463 kts 291°
2026-04-26 23:43 24.62309 57.45923 31764 ft 464 kts 291°
2026-04-26 23:44 24.64785 57.39379 31762 ft 464 kts 291°
2026-04-26 23:44 24.67258 57.32831 31761 ft 464 kts 291°
2026-04-26 23:45 24.69725 57.26275 31778 ft 464 kts 291°
2026-04-26 23:45 24.72188 57.19716 31766 ft 464 kts 291°
2026-04-26 23:46 24.74649 57.13155 31768 ft 464 kts 291°
2026-04-26 23:46 24.77103 57.06601 31765 ft 463 kts 291°
2026-04-26 23:47 24.79533 57.00100 31769 ft 462 kts 291°
2026-04-26 23:47 24.81974 56.93562 31775 ft 462 kts 291°
2026-04-26 23:48 24.84409 56.87028 31772 ft 461 kts 291°
2026-04-26 23:48 24.86840 56.80495 31782 ft 461 kts 291°
2026-04-26 23:49 24.89265 56.73968 31768 ft 460 kts 291°
2026-04-26 23:49 24.91682 56.67452 31783 ft 459 kts 291°
2026-04-26 23:50 24.94094 56.60940 31795 ft 459 kts 291°
2026-04-26 23:50 24.96486 56.54429 31806 ft 457 kts 289°
2026-04-26 23:51 24.98535 56.47814 31800 ft 455 kts 287°
2026-04-26 23:51 25.00516 56.41204 31805 ft 454 kts 287°
2026-04-26 23:52 25.02511 56.34610 31807 ft 453 kts 287°
2026-04-26 23:52 25.04508 56.28022 31785 ft 453 kts 287°
2026-04-26 23:53 25.06489 56.21411 31830 ft 456 kts 287°
2026-04-26 23:53 25.08484 56.14740 31822 ft 459 kts 287°
2026-04-26 23:54 25.10193 56.07954 31850 ft 460 kts 280°
2026-04-26 23:54 25.11052 56.00960 31845 ft 460 kts 277°
2026-04-26 23:55 25.11889 55.93963 31848 ft 460 kts 277°
2026-04-26 23:55 25.12749 55.86982 31850 ft 458 kts 277°
2026-04-26 23:56 25.13606 55.80024 31857 ft 457 kts 277°
2026-04-26 23:56 25.14710 55.73112 31845 ft 457 kts 282°
2026-04-26 23:57 25.16138 55.66290 31834 ft 456 kts 282°
2026-04-26 23:57 25.17540 55.59508 31827 ft 456 kts 282°
2026-04-26 23:58 25.18934 55.52670 31812 ft 457 kts 282°
2026-04-26 23:58 25.20325 55.45825 31805 ft 456 kts 282°
2026-04-26 23:59 25.21905 55.39046 31802 ft 456 kts 287°
2026-04-26 23:59 25.23859 55.32386 31802 ft 456 kts 287°
2026-04-27 00:00 25.25800 55.25723 31830 ft 455 kts 287°
2026-04-27 00:00 25.27714 55.19073 31824 ft 454 kts 287°
2026-04-27 00:01 25.29620 55.12434 31818 ft 453 kts 286°
2026-04-27 00:01 25.31443 55.05784 31813 ft 452 kts 285°
2026-04-27 00:02 25.33215 54.99119 31817 ft 452 kts 285°
2026-04-27 00:02 25.34992 54.92457 31810 ft 452 kts 285°
2026-04-27 00:03 25.36775 54.85797 31810 ft 452 kts 286°
2026-04-27 00:03 25.38558 54.79131 31820 ft 452 kts 285°
2026-04-27 00:04 25.40338 54.72460 31812 ft 452 kts 285°
2026-04-27 00:04 25.42099 54.65848 31818 ft 451 kts 285°
2026-04-27 00:05 25.43891 54.59202 31820 ft 451 kts 287°
2026-04-27 00:05 25.45839 54.52608 31822 ft 451 kts 287°
2026-04-27 00:06 25.47805 54.46018 31821 ft 450 kts 287°
2026-04-27 00:06 25.49742 54.39432 31824 ft 450 kts 287°
2026-04-27 00:07 25.51667 54.32844 31834 ft 450 kts 287°
2026-04-27 00:07 25.53588 54.26261 31825 ft 449 kts 287°
2026-04-27 00:08 25.55518 54.19691 31819 ft 448 kts 287°
2026-04-27 00:08 25.57462 54.13131 31826 ft 448 kts 287°
2026-04-27 00:09 25.59397 54.06576 31825 ft 448 kts 287°
2026-04-27 00:09 25.61280 53.99999 31828 ft 448 kts 287°
2026-04-27 00:10 25.63135 53.93417 31844 ft 447 kts 286°
2026-04-27 00:10 25.64993 53.86839 31819 ft 447 kts 286°
2026-04-27 00:11 25.66849 53.80274 31832 ft 446 kts 286°
2026-04-27 00:11 25.68701 53.73710 31839 ft 446 kts 286°
2026-04-27 00:12 25.70545 53.67156 31821 ft 445 kts 286°
2026-04-27 00:12 25.72370 53.60655 31819 ft 444 kts 286°
2026-04-27 00:13 25.74204 53.54109 31831 ft 444 kts 286°
2026-04-27 00:13 25.76038 53.47570 31836 ft 444 kts 286°
2026-04-27 00:14 25.77888 53.41032 31837 ft 444 kts 286°
2026-04-27 00:14 25.79732 53.34502 31837 ft 444 kts 286°
2026-04-27 00:15 25.81571 53.27967 31837 ft 443 kts 286°
2026-04-27 00:15 25.83400 53.21434 31840 ft 443 kts 285°
2026-04-27 00:16 25.84635 53.14756 31846 ft 442 kts 276°
2026-04-27 00:16 25.85256 53.07971 31844 ft 442 kts 276°
2026-04-27 00:17 25.85904 53.01186 31840 ft 442 kts 276°
2026-04-27 00:17 25.86562 52.94407 31842 ft 441 kts 276°
2026-04-27 00:18 25.87108 52.88777 31839 ft 441 kts 276°
2026-04-27 00:18 25.87760 52.82007 31849 ft 441 kts 276°
2026-04-27 00:19 25.88409 52.75239 31847 ft 441 kts 276°
2026-04-27 00:19 25.89054 52.68481 31847 ft 440 kts 276°
2026-04-27 00:20 25.90156 52.61806 31845 ft 440 kts 285°
2026-04-27 00:20 25.92113 52.55356 31860 ft 442 kts 291°
2026-04-27 00:21 25.94813 52.49214 31877 ft 442 kts 295°
2026-04-27 00:21 25.97568 52.43115 31860 ft 441 kts 294°
2026-04-27 00:22 26.00280 52.37005 31857 ft 440 kts 294°
2026-04-27 00:22 26.02993 52.30909 31860 ft 440 kts 294°
2026-04-27 00:23 26.05703 52.24816 31852 ft 439 kts 294°
2026-04-27 00:23 26.07916 52.18649 31440 ft 423 kts 284°
2026-04-27 00:24 26.08632 52.15493 30614 ft 422 kts 282°
2026-04-27 00:24 26.09201 52.12279 29640 ft 425 kts 278°
2026-04-27 00:24 26.09527 52.09010 28596 ft 425 kts 274°
2026-04-27 00:24 26.09762 52.05731 27623 ft 425 kts 274°
2026-04-27 00:25 26.09991 52.02462 26786 ft 423 kts 274°
2026-04-27 00:25 26.10218 51.99218 26050 ft 419 kts 274°
2026-04-27 00:25 26.10446 51.96007 25360 ft 415 kts 274°
2026-04-27 00:25 26.10674 51.92822 24657 ft 411 kts 274°
2026-04-27 00:26 26.10903 51.89659 23970 ft 409 kts 274°
2026-04-27 00:26 26.11122 51.86625 23303 ft 407 kts 274°
2026-04-27 00:26 26.11307 51.84066 22673 ft 405 kts 274°
2026-04-27 00:26 26.11531 51.80962 22004 ft 401 kts 274°
2026-04-27 00:27 26.11753 51.77888 21340 ft 397 kts 274°
2026-04-27 00:27 26.11972 51.74838 20701 ft 394 kts 274°
2026-04-27 00:27 26.12188 51.71815 20072 ft 390 kts 274°
2026-04-27 00:27 26.12403 51.68817 19460 ft 387 kts 274°
2026-04-27 00:28 26.12615 51.65844 18856 ft 384 kts 274°
2026-04-27 00:28 26.12824 51.62890 18260 ft 381 kts 274°
2026-04-27 00:28 26.13027 51.60024 17605 ft 379 kts 274°
2026-04-27 00:28 26.13232 51.57118 16961 ft 375 kts 274°
2026-04-27 00:29 26.13420 51.54454 16379 ft 372 kts 274°
2026-04-27 00:29 26.13620 51.51597 15817 ft 368 kts 274°
2026-04-27 00:29 26.13815 51.48814 15261 ft 363 kts 274°
2026-04-27 00:29 26.13949 51.46903 14854 ft 361 kts 274°
2026-04-27 00:30 26.14118 51.44476 14466 ft 355 kts 274°
2026-04-27 00:30 26.14304 51.41810 14384 ft 337 kts 274°
2026-04-27 00:30 26.14481 51.39266 14282 ft 322 kts 274°
2026-04-27 00:30 26.14649 51.36842 14197 ft 307 kts 274°
2026-04-27 00:31 26.14807 51.34554 14116 ft 294 kts 274°
2026-04-27 00:31 26.14959 51.32344 14007 ft 281 kts 274°
2026-04-27 00:31 26.15105 51.30212 13844 ft 271 kts 274°
2026-04-27 00:31 26.15247 51.28143 13567 ft 266 kts 274°
2026-04-27 00:32 26.15386 51.26100 13160 ft 265 kts 274°
2026-04-27 00:32 26.15525 51.24054 12719 ft 265 kts 275°
2026-04-27 00:32 26.15664 51.22011 12299 ft 264 kts 275°
2026-04-27 00:32 26.15803 51.19974 11909 ft 263 kts 275°
2026-04-27 00:33 26.15940 51.17947 11513 ft 262 kts 275°
2026-04-27 00:33 26.16077 51.15928 11116 ft 261 kts 275°
2026-04-27 00:33 26.16212 51.13916 10724 ft 260 kts 276°
2026-04-27 00:33 26.16348 51.11908 10335 ft 260 kts 276°
2026-04-27 00:34 26.16483 51.09904 9965 ft 259 kts 276°
2026-04-27 00:34 26.16617 51.07907 9552 ft 259 kts 276°
2026-04-27 00:34 26.16751 51.05917 9157 ft 258 kts 276°
2026-04-27 00:34 26.16884 51.03930 8743 ft 257 kts 276°
2026-04-27 00:35 26.17016 51.01948 8340 ft 256 kts 276°
2026-04-27 00:35 26.17148 50.99976 7959 ft 255 kts 276°
2026-04-27 00:35 26.17279 50.98010 7558 ft 254 kts 276°
2026-04-27 00:35 26.17409 50.96047 7140 ft 254 kts 276°
2026-04-27 00:36 26.17539 50.94087 6745 ft 254 kts 275°
2026-04-27 00:36 26.17668 50.92133 6365 ft 252 kts 275°
2026-04-27 00:36 26.17795 50.90190 5993 ft 251 kts 276°
2026-04-27 00:36 26.17921 50.88268 5631 ft 248 kts 277°
2026-04-27 00:37 26.18049 50.86343 5117 ft 252 kts 276°
2026-04-27 00:37 26.18177 50.84384 4681 ft 253 kts 277°
2026-04-27 00:37 26.18301 50.82477 4571 ft 240 kts 277°
2026-04-27 00:37 26.18417 50.80669 4454 ft 228 kts 277°
2026-04-27 00:38 26.18527 50.78962 4355 ft 214 kts 278°
2026-04-27 00:38 26.18889 50.77459 4133 ft 194 kts 304°
2026-04-27 00:38 26.19634 50.76238 3788 ft 190 kts 305°
2026-04-27 00:38 26.20352 50.74999 3447 ft 190 kts 305°
2026-04-27 00:39 26.21067 50.73760 3136 ft 190 kts 305°
2026-04-27 00:39 26.21783 50.72523 2801 ft 191 kts 306°
2026-04-27 00:39 26.22503 50.71307 2518 ft 185 kts 306°
2026-04-27 00:39 26.23175 50.70117 2236 ft 179 kts 304°
2026-04-27 00:40 26.23801 50.68953 1824 ft 174 kts 305°
2026-04-27 00:40 26.24496 50.67756 947 ft 185 kts 307°
2026-04-27 00:40 26.25201 50.66591 421 ft 179 kts 303°
2026-04-27 00:40 26.25828 50.65518 216 ft 155 kts 303°
2026-04-27 00:41 26.26369 50.64598 37 ft 131 kts 303°
2026-04-27 00:41 26.26808 50.63839 23 ft 96 kts 302°
2026-04-27 00:41 26.27071 50.63384 19 ft 43 kts 303°
2026-04-27 00:41 26.27137 50.63269 20 ft 4 kts 302°
2026-04-27 00:42 26.27216 50.63128 21 ft 31 kts 300°
2026-04-27 00:42 26.27256 50.62903 22 ft 30 kts 269°
2026-04-27 00:42 26.27284 50.62676 23 ft 30 kts 300°
2026-04-27 00:42 26.27398 50.62481 22 ft 30 kts 301°
2026-04-27 00:43 26.27476 50.62344 23 ft 19 kts 302°
2026-04-27 00:43 26.27528 50.62232 24 ft 10 kts 273°
2026-04-27 00:43 26.27518 50.62202 25 ft 6 kts 230°
2026-04-27 00:43 26.27478 50.62131 24 ft 12 kts 255°
2026-04-27 00:44 26.27476 50.62051 25 ft 6 kts 274°
2026-04-27 00:44 26.27483 50.61998 21 ft 8 kts 281°
2026-04-27 00:44 26.27484 50.61993 21 ft 0 kts 282°